Time,TemperatureF,DewpointF,PressureIn,WindDirection,WindDirectionDegrees,WindSpeedMPH,WindSpeedGustMPH,Humidity,HourlyPrecipIn,Conditions,Clouds,dailyrainin,SoftwareType,DateUTC
2013-01-29 00:01:00,35.9,32.7,29.97,West,265,0.0,-999.0,88,0.00,,,0.00,Wunderground v.1.15,2013-01-29 05:01:00,
2013-01-29 00:03:00,36.0,33.1,29.97,West,265,0.0,-999.0,89,0.00,,,0.00,Wunderground v.1.15,2013-01-29 05:03:00,
2013-01-29 00:06:00,35.9,32.7,29.97,West,265,0.0,-999.0,88,0.00,,,0.00,Wunderground v.1.15,2013-01-29 05:06:00,
2013-01-29 00:09:00,35.9,32.7,29.97,West,265,0.0,-999.0,88,0.00,,,0.00,Wunderground v.1.15,2013-01-29 05:09:00,
2013-01-29 00:10:00,35.9,32.7,29.97,West,265,0.0,-999.0,88,0.00,,,0.00,Wunderground v.1.15,2013-01-29 05:10:00,
2013-01-29 00:12:00,35.8,32.6,29.97,West,265,0.0,-999.0,88,0.00,,,0.00,Wunderground v.1.15,2013-01-29 05:12:00,
2013-01-29 00:15:00,35.8,32.6,29.97,West,265,0.0,-999.0,88,0.00,,,0.00,Wunderground v.1.15,2013-01-29 05:15:00,
2013-01-29 00:16:00,35.8,32.6,29.97,West,265,0.0,-999.0,88,0.00,,,0.00,Wunderground v.1.15,2013-01-29 05:16:00,
2013-01-29 00:17:00,35.8,32.6,29.97,West,265,0.0,-999.0,88,0.00,,,0.00,Wunderground v.1.15,2013-01-29 05:17:00,
2013-01-29 00:20:00,35.6,32.4,29.97,West,265,0.0,-999.0,88,0.00,,,0.00,Wunderground v.1.15,2013-01-29 05:20:00,
2013-01-29 00:22:00,35.5,32.3,29.97,West,265,0.0,-999.0,88,0.00,,,0.00,Wunderground v.1.15,2013-01-29 05:22:00,
2013-01-29 00:25:00,35.3,32.1,29.97,West,265,0.0,-999.0,88,0.00,,,0.00,Wunderground v.1.15,2013-01-29 05:25:00,
2013-01-29 00:27:00,35.3,32.4,29.97,West,265,0.0,-999.0,89,0.00,,,0.00,Wunderground v.1.15,2013-01-29 05:27:00,
2013-01-29 00:31:00,35.2,32.3,29.96,West,265,0.0,-999.0,89,0.00,,,0.00,Wunderground v.1.15,2013-01-29 05:31:00,
2013-01-29 00:32:00,35.2,32.3,29.96,West,265,0.0,-999.0,89,0.00,,,0.00,Wunderground v.1.15,2013-01-29 05:32:00,
2013-01-29 00:33:00,35.0,32.1,29.96,West,265,0.0,-999.0,89,0.00,,,0.00,Wunderground v.1.15,2013-01-29 05:33:00,
2013-01-29 00:34:00,35.0,32.1,29.96,West,265,0.0,-999.0,89,0.00,,,0.00,Wunderground v.1.15,2013-01-29 05:34:00,
2013-01-29 00:37:00,35.0,32.1,29.96,West,265,0.0,-999.0,89,0.00,,,0.00,Wunderground v.1.15,2013-01-29 05:37:00,
2013-01-29 00:38:00,34.9,32.0,29.96,West,265,0.0,-999.0,89,0.00,,,0.00,Wunderground v.1.15,2013-01-29 05:38:00,
2013-01-29 00:41:00,34.9,32.0,29.96,West,265,0.0,-999.0,89,0.00,,,0.00,Wunderground v.1.15,2013-01-29 05:41:00,
2013-01-29 00:42:00,34.7,31.8,29.96,West,265,0.0,-999.0,89,0.00,,,0.00,Wunderground v.1.15,2013-01-29 05:42:00,
2013-01-29 00:44:00,34.7,31.8,29.96,West,265,0.0,-999.0,89,0.00,,,0.00,Wunderground v.1.15,2013-01-29 05:44:00,
2013-01-29 00:46:00,34.6,31.7,29.95,West,265,0.0,-999.0,89,0.00,,,0.00,Wunderground v.1.15,2013-01-29 05:46:00,
2013-01-29 00:47:00,34.6,31.7,29.95,West,265,0.0,-999.0,89,0.00,,,0.00,Wunderground v.1.15,2013-01-29 05:47:00,
2013-01-29 00:48:00,34.6,31.7,29.95,West,265,0.0,-999.0,89,0.00,,,0.00,Wunderground v.1.15,2013-01-29 05:48:00,
2013-01-29 00:52:00,34.4,31.5,29.95,West,265,0.0,-999.0,89,0.00,,,0.00,Wunderground v.1.15,2013-01-29 05:52:00,
2013-01-29 00:53:00,34.4,31.5,29.95,West,265,0.0,-999.0,89,0.00,,,0.00,Wunderground v.1.15,2013-01-29 05:53:00,
2013-01-29 00:54:00,34.4,31.5,29.95,West,265,0.0,-999.0,89,0.00,,,0.00,Wunderground v.1.15,2013-01-29 05:54:00,
2013-01-29 00:56:00,34.3,31.4,29.95,West,265,0.0,-999.0,89,0.00,,,0.00,Wunderground v.1.15,2013-01-29 05:56:00,
2013-01-29 00:59:00,34.1,31.2,29.95,West,265,0.0,-999.0,89,0.00,,,0.00,Wunderground v.1.15,2013-01-29 05:59:00,
2013-01-29 01:00:00,34.1,31.2,29.95,West,265,0.0,-999.0,89,0.00,,,0.00,Wunderground v.1.15,2013-01-29 06:00:00,
2013-01-29 01:01:00,34.1,31.2,29.95,West,265,0.0,-999.0,89,0.00,,,0.00,Wunderground v.1.15,2013-01-29 06:01:00,
2013-01-29 01:06:00,33.8,30.9,29.95,West,265,0.0,-999.0,89,0.00,,,0.00,Wunderground v.1.15,2013-01-29 06:06:00,
2013-01-29 01:07:00,33.8,30.9,29.95,West,265,0.0,-999.0,89,0.00,,,0.00,Wunderground v.1.15,2013-01-29 06:07:00,
2013-01-29 01:11:00,33.8,30.9,29.95,West,265,0.0,-999.0,89,0.00,,,0.00,Wunderground v.1.15,2013-01-29 06:11:00,
2013-01-29 01:12:00,33.8,30.9,29.95,West,265,0.0,-999.0,89,0.00,,,0.00,Wunderground v.1.15,2013-01-29 06:12:00,
2013-01-29 01:14:00,33.8,30.9,29.95,West,265,0.0,-999.0,89,0.00,,,0.00,Wunderground v.1.15,2013-01-29 06:14:00,
2013-01-29 01:17:00,33.8,30.9,29.93,West,265,0.0,-999.0,89,0.00,,,0.00,Wunderground v.1.15,2013-01-29 06:17:00,
2013-01-29 01:18:00,33.7,30.8,29.93,West,265,0.0,-999.0,89,0.00,,,0.00,Wunderground v.1.15,2013-01-29 06:18:00,
2013-01-29 01:22:00,33.7,30.8,29.93,West,265,0.0,-999.0,89,0.00,,,0.00,Wunderground v.1.15,2013-01-29 06:22:00,
2013-01-29 01:24:00,33.7,30.8,29.93,West,265,0.0,-999.0,89,0.00,,,0.00,Wunderground v.1.15,2013-01-29 06:24:00,
2013-01-29 01:26:00,33.7,30.8,29.93,West,265,0.0,-999.0,89,0.00,,,0.00,Wunderground v.1.15,2013-01-29 06:26:00,
2013-01-29 01:27:00,33.7,31.1,29.93,West,265,0.0,-999.0,90,0.00,,,0.00,Wunderground v.1.15,2013-01-29 06:27:00,
2013-01-29 01:31:00,33.7,31.1,29.93,West,265,0.0,-999.0,90,0.00,,,0.00,Wunderground v.1.15,2013-01-29 06:31:00,
2013-01-29 01:32:00,33.7,31.1,29.93,West,265,0.0,-999.0,90,0.00,,,0.00,Wunderground v.1.15,2013-01-29 06:32:00,
2013-01-29 01:37:00,33.7,31.1,29.93,West,265,0.0,-999.0,90,0.00,,,0.00,Wunderground v.1.15,2013-01-29 06:37:00,
2013-01-29 01:38:00,33.7,31.1,29.93,West,265,0.0,-999.0,90,0.00,,,0.00,Wunderground v.1.15,2013-01-29 06:38:00,
2013-01-29 01:41:00,33.7,31.1,29.93,West,265,0.0,-999.0,90,0.00,,,0.00,Wunderground v.1.15,2013-01-29 06:41:00,
2013-01-29 01:43:00,33.7,31.1,29.93,West,265,0.0,-999.0,90,0.00,,,0.00,Wunderground v.1.15,2013-01-29 06:43:00,
2013-01-29 01:46:00,33.8,31.2,29.92,West,265,0.0,-999.0,90,0.00,,,0.00,Wunderground v.1.15,2013-01-29 06:46:00,
2013-01-29 01:47:00,33.8,31.2,29.92,West,265,0.0,-999.0,90,0.00,,,0.00,Wunderground v.1.15,2013-01-29 06:47:00,
2013-01-29 01:50:00,33.8,31.2,29.92,West,265,0.0,-999.0,90,0.00,,,0.00,Wunderground v.1.15,2013-01-29 06:50:00,
2013-01-29 01:53:00,33.8,31.2,29.92,West,265,0.0,-999.0,90,0.00,,,0.00,Wunderground v.1.15,2013-01-29 06:53:00,
2013-01-29 01:56:00,33.8,31.2,29.92,West,265,0.0,-999.0,90,0.00,,,0.00,Wunderground v.1.15,2013-01-29 06:56:00,
2013-01-29 01:57:00,33.8,31.2,29.92,West,265,0.0,-999.0,90,0.00,,,0.00,Wunderground v.1.15,2013-01-29 06:57:00,
2013-01-29 01:58:00,33.8,31.2,29.92,West,265,0.0,-999.0,90,0.00,,,0.00,Wunderground v.1.15,2013-01-29 06:58:00,
2013-01-29 02:01:00,33.7,31.1,29.92,West,265,0.0,-999.0,90,0.00,,,0.00,Wunderground v.1.15,2013-01-29 07:01:00,
2013-01-29 02:02:00,33.7,31.1,29.92,West,265,0.0,-999.0,90,0.00,,,0.00,Wunderground v.1.15,2013-01-29 07:02:00,
2013-01-29 02:04:00,33.8,31.2,29.92,West,265,0.0,-999.0,90,0.00,,,0.00,Wunderground v.1.15,2013-01-29 07:04:00,
2013-01-29 02:07:00,33.8,31.2,29.92,West,265,0.0,-999.0,90,0.00,,,0.00,Wunderground v.1.15,2013-01-29 07:07:00,
2013-01-29 02:08:00,33.8,31.2,29.92,West,265,0.0,-999.0,90,0.00,,,0.00,Wunderground v.1.15,2013-01-29 07:08:00,
2013-01-29 02:09:00,33.8,31.2,29.92,West,265,0.0,-999.0,90,0.00,,,0.00,Wunderground v.1.15,2013-01-29 07:09:00,
2013-01-29 02:12:00,33.8,31.2,29.92,West,265,0.0,-999.0,90,0.00,,,0.00,Wunderground v.1.15,2013-01-29 07:12:00,
2013-01-29 02:13:00,33.8,31.2,29.92,West,265,0.0,-999.0,90,0.00,,,0.00,Wunderground v.1.15,2013-01-29 07:13:00,
2013-01-29 02:14:00,33.8,31.2,29.92,West,265,0.0,-999.0,90,0.00,,,0.00,Wunderground v.1.15,2013-01-29 07:14:00,
2013-01-29 02:17:00,33.8,31.2,29.93,West,265,0.0,-999.0,90,0.00,,,0.00,Wunderground v.1.15,2013-01-29 07:17:00,
2013-01-29 02:18:00,33.8,31.5,29.93,West,265,0.0,-999.0,91,0.00,,,0.00,Wunderground v.1.15,2013-01-29 07:18:00,
2013-01-29 02:20:00,33.8,31.2,29.93,West,265,0.0,-999.0,90,0.00,,,0.00,Wunderground v.1.15,2013-01-29 07:20:00,
2013-01-29 02:22:00,33.8,31.2,29.93,West,265,0.0,-999.0,90,0.00,,,0.00,Wunderground v.1.15,2013-01-29 07:22:00,
2013-01-29 02:24:00,33.8,31.2,29.93,West,265,0.0,-999.0,90,0.00,,,0.00,Wunderground v.1.15,2013-01-29 07:24:00,
2013-01-29 02:25:00,33.8,31.5,29.93,West,265,0.0,-999.0,91,0.00,,,0.00,Wunderground v.1.15,2013-01-29 07:25:00,
2013-01-29 02:28:00,33.8,31.5,29.93,West,265,0.0,-999.0,91,0.00,,,0.00,Wunderground v.1.15,2013-01-29 07:28:00,
2013-01-29 02:29:00,33.8,31.5,29.93,West,265,0.0,-999.0,91,0.00,,,0.00,Wunderground v.1.15,2013-01-29 07:29:00,
2013-01-29 02:30:00,33.8,31.5,29.92,West,265,0.0,-999.0,91,0.00,,,0.00,Wunderground v.1.15,2013-01-29 07:30:00,
2013-01-29 02:33:00,34.0,31.6,29.92,West,265,0.0,-999.0,91,0.00,,,0.00,Wunderground v.1.15,2013-01-29 07:33:00,
2013-01-29 02:35:00,34.0,31.6,29.92,West,265,0.0,-999.0,91,0.00,,,0.00,Wunderground v.1.15,2013-01-29 07:35:00,
2013-01-29 02:38:00,34.0,31.6,29.92,West,265,0.0,-999.0,91,0.00,,,0.00,Wunderground v.1.15,2013-01-29 07:38:00,
2013-01-29 02:40:00,34.0,31.6,29.92,West,265,0.0,-999.0,91,0.00,,,0.00,Wunderground v.1.15,2013-01-29 07:40:00,
2013-01-29 02:41:00,34.0,31.6,29.92,West,265,0.0,-999.0,91,0.00,,,0.00,Wunderground v.1.15,2013-01-29 07:41:00,
2013-01-29 02:44:00,34.0,31.6,29.92,West,265,0.0,-999.0,91,0.00,,,0.00,Wunderground v.1.15,2013-01-29 07:44:00,
2013-01-29 02:45:00,34.0,31.6,29.93,West,265,0.0,-999.0,91,0.00,,,0.00,Wunderground v.1.15,2013-01-29 07:45:00,
2013-01-29 02:46:00,34.0,31.6,29.93,West,265,0.0,-999.0,91,0.00,,,0.00,Wunderground v.1.15,2013-01-29 07:46:00,
2013-01-29 02:49:00,34.0,31.6,29.93,West,265,0.0,-999.0,91,0.00,,,0.00,Wunderground v.1.15,2013-01-29 07:49:00,
2013-01-29 02:50:00,34.0,31.6,29.93,West,265,0.0,-999.0,91,0.00,,,0.00,Wunderground v.1.15,2013-01-29 07:50:00,
2013-01-29 02:51:00,34.0,31.6,29.93,West,265,0.0,-999.0,91,0.00,,,0.00,Wunderground v.1.15,2013-01-29 07:51:00,
2013-01-29 02:54:00,34.0,31.6,29.93,West,265,0.0,-999.0,91,0.00,,,0.00,Wunderground v.1.15,2013-01-29 07:54:00,
2013-01-29 02:56:00,34.0,31.6,29.93,West,265,0.0,-999.0,91,0.00,,,0.00,Wunderground v.1.15,2013-01-29 07:56:00,
2013-01-29 02:59:00,34.1,31.7,29.93,West,265,0.0,-999.0,91,0.00,,,0.00,Wunderground v.1.15,2013-01-29 07:59:00,
2013-01-29 03:01:00,34.1,31.7,29.92,West,265,0.0,-999.0,91,0.00,,,0.00,Wunderground v.1.15,2013-01-29 08:01:00,
2013-01-29 03:02:00,34.1,31.7,29.92,West,265,0.0,-999.0,91,0.00,,,0.00,Wunderground v.1.15,2013-01-29 08:02:00,
2013-01-29 03:05:00,34.1,31.7,29.92,West,265,0.0,-999.0,91,0.00,,,0.00,Wunderground v.1.15,2013-01-29 08:05:00,
2013-01-29 03:07:00,34.1,31.7,29.92,West,265,0.0,-999.0,91,0.00,,,0.00,Wunderground v.1.15,2013-01-29 08:07:00,
2013-01-29 03:11:00,34.1,31.7,29.92,West,265,0.0,-999.0,91,0.00,,,0.00,Wunderground v.1.15,2013-01-29 08:11:00,
2013-01-29 03:12:00,34.1,31.7,29.92,West,265,0.0,-999.0,91,0.00,,,0.00,Wunderground v.1.15,2013-01-29 08:12:00,
2013-01-29 03:16:00,34.4,32.0,29.92,West,265,0.0,-999.0,91,0.00,,,0.00,Wunderground v.1.15,2013-01-29 08:16:00,
2013-01-29 03:17:00,34.4,32.0,29.92,West,265,0.0,-999.0,91,0.00,,,0.00,Wunderground v.1.15,2013-01-29 08:17:00,
2013-01-29 03:18:00,34.6,32.2,29.92,West,265,0.0,-999.0,91,0.00,,,0.00,Wunderground v.1.15,2013-01-29 08:18:00,
2013-01-29 03:21:00,34.6,32.2,29.92,West,265,0.0,-999.0,91,0.00,,,0.00,Wunderground v.1.15,2013-01-29 08:21:00,
2013-01-29 03:22:00,34.6,32.2,29.92,West,265,0.0,-999.0,91,0.00,,,0.00,Wunderground v.1.15,2013-01-29 08:22:00,
2013-01-29 03:23:00,34.6,32.2,29.92,West,265,0.0,-999.0,91,0.00,,,0.00,Wunderground v.1.15,2013-01-29 08:23:00,
2013-01-29 03:24:00,34.7,32.3,29.92,West,265,0.0,-999.0,91,0.00,,,0.00,Wunderground v.1.15,2013-01-29 08:24:00,
2013-01-29 03:26:00,34.7,32.6,29.92,West,265,0.0,-999.0,92,0.00,,,0.00,Wunderground v.1.15,2013-01-29 08:26:00,
2013-01-29 03:28:00,34.7,32.6,29.92,West,265,0.0,-999.0,92,0.00,,,0.00,Wunderground v.1.15,2013-01-29 08:28:00,
2013-01-29 03:29:00,34.7,32.6,29.92,West,265,0.0,-999.0,92,0.00,,,0.00,Wunderground v.1.15,2013-01-29 08:29:00,
2013-01-29 03:30:00,34.9,32.5,29.92,West,265,0.0,-999.0,91,0.00,,,0.00,Wunderground v.1.15,2013-01-29 08:30:00,
2013-01-29 03:31:00,34.7,32.3,29.92,West,265,0.0,-999.0,91,0.00,,,0.00,Wunderground v.1.15,2013-01-29 08:31:00,
2013-01-29 03:33:00,34.9,32.5,29.92,West,265,0.0,-999.0,91,0.00,,,0.00,Wunderground v.1.15,2013-01-29 08:33:00,
2013-01-29 03:34:00,34.9,32.5,29.92,West,265,0.0,-999.0,91,0.00,,,0.00,Wunderground v.1.15,2013-01-29 08:34:00,
2013-01-29 03:36:00,35.0,32.9,29.92,West,265,0.0,-999.0,92,0.00,,,0.00,Wunderground v.1.15,2013-01-29 08:36:00,
2013-01-29 03:37:00,35.0,32.9,29.92,West,265,0.0,-999.0,92,0.00,,,0.00,Wunderground v.1.15,2013-01-29 08:37:00,
2013-01-29 03:38:00,35.0,32.9,29.92,West,265,0.0,-999.0,92,0.00,,,0.00,Wunderground v.1.15,2013-01-29 08:38:00,
2013-01-29 03:40:00,35.0,32.9,29.92,West,265,0.0,-999.0,92,0.00,,,0.00,Wunderground v.1.15,2013-01-29 08:40:00,
2013-01-29 03:41:00,35.0,32.9,29.92,West,265,0.0,-999.0,92,0.00,,,0.00,Wunderground v.1.15,2013-01-29 08:41:00,
2013-01-29 03:43:00,35.0,32.9,29.92,West,265,0.0,-999.0,92,0.00,,,0.00,Wunderground v.1.15,2013-01-29 08:43:00,
2013-01-29 03:44:00,35.0,32.9,29.92,West,265,0.0,-999.0,92,0.00,,,0.00,Wunderground v.1.15,2013-01-29 08:44:00,
2013-01-29 03:45:00,35.2,33.1,29.91,West,265,0.0,-999.0,92,0.00,,,0.00,Wunderground v.1.15,2013-01-29 08:45:00,
2013-01-29 03:46:00,35.2,33.1,29.91,West,265,0.0,-999.0,92,0.00,,,0.00,Wunderground v.1.15,2013-01-29 08:46:00,
2013-01-29 03:48:00,35.2,33.1,29.91,West,265,0.0,-999.0,92,0.00,,,0.00,Wunderground v.1.15,2013-01-29 08:48:00,
2013-01-29 03:49:00,35.2,33.1,29.91,West,265,0.0,-999.0,92,0.00,,,0.00,Wunderground v.1.15,2013-01-29 08:49:00,
2013-01-29 03:50:00,35.2,33.1,29.91,West,265,0.0,-999.0,92,0.00,,,0.00,Wunderground v.1.15,2013-01-29 08:50:00,
2013-01-29 03:52:00,35.2,33.1,29.91,West,265,0.0,-999.0,92,0.00,,,0.00,Wunderground v.1.15,2013-01-29 08:52:00,
2013-01-29 03:53:00,35.2,33.1,29.91,West,265,0.0,-999.0,92,0.00,,,0.00,Wunderground v.1.15,2013-01-29 08:53:00,
2013-01-29 03:54:00,35.2,33.1,29.91,West,265,0.0,-999.0,92,0.00,,,0.00,Wunderground v.1.15,2013-01-29 08:54:00,
2013-01-29 03:56:00,35.2,33.1,29.91,West,265,0.0,-999.0,92,0.00,,,0.00,Wunderground v.1.15,2013-01-29 08:56:00,
2013-01-29 03:57:00,35.2,33.1,29.91,West,265,0.0,-999.0,92,0.00,,,0.00,Wunderground v.1.15,2013-01-29 08:57:00,
2013-01-29 03:59:00,35.2,33.1,29.91,West,265,0.0,-999.0,92,0.00,,,0.00,Wunderground v.1.15,2013-01-29 08:59:00,
2013-01-29 04:01:00,35.2,33.1,29.90,West,265,0.0,-999.0,92,0.00,,,0.00,Wunderground v.1.15,2013-01-29 09:01:00,
2013-01-29 04:04:00,35.2,33.1,29.90,West,265,0.0,-999.0,92,0.00,,,0.00,Wunderground v.1.15,2013-01-29 09:04:00,
2013-01-29 04:05:00,35.2,33.1,29.90,West,265,0.0,-999.0,92,0.00,,,0.00,Wunderground v.1.15,2013-01-29 09:05:00,
2013-01-29 04:07:00,35.2,33.1,29.90,West,265,0.0,-999.0,92,0.00,,,0.00,Wunderground v.1.15,2013-01-29 09:07:00,
2013-01-29 04:09:00,35.2,33.1,29.90,West,265,0.0,-999.0,92,0.00,,,0.00,Wunderground v.1.15,2013-01-29 09:09:00,
2013-01-29 04:10:00,35.2,33.1,29.90,West,265,0.0,-999.0,92,0.00,,,0.00,Wunderground v.1.15,2013-01-29 09:10:00,
2013-01-29 04:12:00,35.2,33.1,29.90,West,265,0.0,-999.0,92,0.00,,,0.00,Wunderground v.1.15,2013-01-29 09:12:00,
2013-01-29 04:14:00,35.2,33.1,29.90,West,265,0.0,-999.0,92,0.00,,,0.00,Wunderground v.1.15,2013-01-29 09:14:00,
2013-01-29 04:15:00,35.2,33.1,29.90,West,265,0.0,-999.0,92,0.00,,,0.00,Wunderground v.1.15,2013-01-29 09:15:00,
2013-01-29 04:16:00,35.2,33.1,29.90,West,265,0.0,-999.0,92,0.00,,,0.00,Wunderground v.1.15,2013-01-29 09:16:00,
2013-01-29 04:17:00,35.3,33.2,29.90,West,265,0.0,-999.0,92,0.00,,,0.00,Wunderground v.1.15,2013-01-29 09:17:00,
2013-01-29 04:20:00,35.3,33.2,29.90,West,265,0.0,-999.0,92,0.00,,,0.00,Wunderground v.1.15,2013-01-29 09:20:00,
2013-01-29 04:22:00,35.3,33.2,29.90,West,265,0.0,-999.0,92,0.00,,,0.00,Wunderground v.1.15,2013-01-29 09:22:00,
2013-01-29 04:25:00,35.3,33.2,29.90,West,265,0.0,-999.0,92,0.00,,,0.00,Wunderground v.1.15,2013-01-29 09:25:00,
2013-01-29 04:27:00,35.3,33.2,29.90,West,265,0.0,-999.0,92,0.00,,,0.00,Wunderground v.1.15,2013-01-29 09:27:00,
2013-01-29 04:30:00,35.3,33.2,29.88,West,265,0.0,-999.0,92,0.00,,,0.00,Wunderground v.1.15,2013-01-29 09:30:00,
2013-01-29 04:33:00,35.3,33.2,29.88,West,265,0.0,-999.0,92,0.00,,,0.00,Wunderground v.1.15,2013-01-29 09:33:00,
2013-01-29 04:35:00,35.3,33.2,29.88,West,265,0.0,-999.0,92,0.00,,,0.00,Wunderground v.1.15,2013-01-29 09:35:00,
2013-01-29 04:36:00,35.3,33.2,29.88,West,264,0.0,-999.0,92,0.00,,,0.00,Wunderground v.1.15,2013-01-29 09:36:00,
2013-01-29 04:38:00,35.3,33.2,29.88,West,264,0.0,-999.0,92,0.00,,,0.00,Wunderground v.1.15,2013-01-29 09:38:00,
2013-01-29 04:41:00,35.3,33.2,29.88,West,264,0.0,-999.0,92,0.00,,,0.00,Wunderground v.1.15,2013-01-29 09:41:00,
2013-01-29 04:42:00,35.3,33.2,29.88,West,264,0.0,-999.0,92,0.00,,,0.00,Wunderground v.1.15,2013-01-29 09:42:00,
2013-01-29 04:43:00,35.3,33.2,29.88,West,264,0.0,-999.0,92,0.00,,,0.00,Wunderground v.1.15,2013-01-29 09:43:00,
2013-01-29 04:44:00,35.3,33.2,29.88,West,264,0.0,-999.0,92,0.00,,,0.00,Wunderground v.1.15,2013-01-29 09:44:00,
2013-01-29 04:46:00,35.3,33.2,29.87,West,263,0.0,-999.0,92,0.00,,,0.00,Wunderground v.1.15,2013-01-29 09:46:00,
2013-01-29 04:48:00,35.3,33.2,29.87,West,263,0.0,-999.0,92,0.00,,,0.00,Wunderground v.1.15,2013-01-29 09:48:00,
2013-01-29 04:50:00,35.3,33.2,29.87,West,263,0.0,-999.0,92,0.00,,,0.00,Wunderground v.1.15,2013-01-29 09:50:00,
2013-01-29 04:52:00,35.3,33.2,29.87,West,263,0.0,-999.0,92,0.00,,,0.00,Wunderground v.1.15,2013-01-29 09:52:00,
2013-01-29 04:53:00,35.3,33.2,29.87,West,263,0.0,-999.0,92,0.00,,,0.00,Wunderground v.1.15,2013-01-29 09:53:00,
2013-01-29 04:55:00,35.3,33.2,29.87,West,263,0.0,-999.0,92,0.00,,,0.00,Wunderground v.1.15,2013-01-29 09:55:00,
2013-01-29 04:57:00,35.3,33.2,29.87,West,263,0.0,-999.0,92,0.00,,,0.00,Wunderground v.1.15,2013-01-29 09:57:00,
2013-01-29 04:58:00,35.3,33.2,29.87,West,263,0.0,-999.0,92,0.00,,,0.00,Wunderground v.1.15,2013-01-29 09:58:00,
2013-01-29 05:01:00,35.3,33.2,29.87,West,263,0.0,-999.0,92,0.00,,,0.00,Wunderground v.1.15,2013-01-29 10:01:00,
2013-01-29 05:02:00,35.3,33.2,29.87,West,263,0.0,-999.0,92,0.00,,,0.00,Wunderground v.1.15,2013-01-29 10:02:00,
2013-01-29 05:03:00,35.3,33.2,29.87,West,263,0.0,-999.0,92,0.00,,,0.00,Wunderground v.1.15,2013-01-29 10:03:00,
2013-01-29 05:04:00,35.5,33.4,29.87,SE,137,0.0,-999.0,92,0.00,,,0.00,Wunderground v.1.15,2013-01-29 10:04:00,
2013-01-29 05:06:00,35.5,33.4,29.87,SE,137,0.0,-999.0,92,0.00,,,0.00,Wunderground v.1.15,2013-01-29 10:06:00,
2013-01-29 05:08:00,35.5,33.4,29.87,SE,138,0.0,-999.0,92,0.00,,,0.00,Wunderground v.1.15,2013-01-29 10:08:00,
2013-01-29 05:09:00,35.5,33.4,29.87,SE,138,0.0,-999.0,92,0.00,,,0.00,Wunderground v.1.15,2013-01-29 10:09:00,
2013-01-29 05:12:00,35.5,33.4,29.87,SE,138,0.0,-999.0,92,0.00,,,0.00,Wunderground v.1.15,2013-01-29 10:12:00,
2013-01-29 05:13:00,35.5,33.4,29.87,SE,138,0.0,-999.0,92,0.00,,,0.00,Wunderground v.1.15,2013-01-29 10:13:00,
2013-01-29 05:14:00,35.5,33.4,29.87,SE,138,0.0,-999.0,92,0.00,,,0.00,Wunderground v.1.15,2013-01-29 10:14:00,
2013-01-29 05:15:00,35.5,33.4,29.87,SE,138,0.0,-999.0,92,0.00,,,0.00,Wunderground v.1.15,2013-01-29 10:15:00,
2013-01-29 05:17:00,35.5,33.4,29.88,SE,138,0.0,-999.0,92,0.00,,,0.00,Wunderground v.1.15,2013-01-29 10:17:00,
2013-01-29 05:18:00,35.5,33.4,29.88,SE,138,1.0,-999.0,92,0.00,,,0.00,Wunderground v.1.15,2013-01-29 10:18:00,
2013-01-29 05:19:00,35.5,33.4,29.88,SE,138,0.0,-999.0,92,0.00,,,0.00,Wunderground v.1.15,2013-01-29 10:19:00,
2013-01-29 05:21:00,35.5,33.4,29.88,ESE,119,0.0,-999.0,92,0.00,,,0.00,Wunderground v.1.15,2013-01-29 10:21:00,
2013-01-29 05:22:00,35.5,33.4,29.88,ESE,119,1.0,-999.0,92,0.00,,,0.00,Wunderground v.1.15,2013-01-29 10:22:00,
2013-01-29 05:23:00,35.5,33.4,29.88,ESE,119,0.0,-999.0,92,0.00,,,0.00,Wunderground v.1.15,2013-01-29 10:23:00,
2013-01-29 05:25:00,35.5,33.4,29.88,ESE,119,0.0,-999.0,92,0.00,,,0.00,Wunderground v.1.15,2013-01-29 10:25:00,
2013-01-29 05:27:00,35.5,33.4,29.88,East,96,0.0,-999.0,92,0.00,,,0.00,Wunderground v.1.15,2013-01-29 10:27:00,
2013-01-29 05:28:00,35.5,33.4,29.88,East,96,1.0,-999.0,92,0.00,,,0.00,Wunderground v.1.15,2013-01-29 10:28:00,
2013-01-29 05:29:00,35.5,33.4,29.88,East,96,1.0,-999.0,92,0.00,,,0.00,Wunderground v.1.15,2013-01-29 10:29:00,
2013-01-29 05:30:00,35.5,33.4,29.88,East,96,1.0,-999.0,92,0.00,,,0.00,Wunderground v.1.15,2013-01-29 10:30:00,
2013-01-29 05:32:00,35.3,33.2,29.83,East,100,1.0,-999.0,92,0.17,,,0.01,Wunderground v.1.15,2013-01-29 10:32:00,
2013-01-29 05:34:00,35.3,33.2,29.83,East,100,0.0,-999.0,92,0.17,,,0.01,Wunderground v.1.15,2013-01-29 10:34:00,
2013-01-29 05:36:00,35.3,33.2,29.83,East,100,0.0,-999.0,92,0.17,,,0.02,Wunderground v.1.15,2013-01-29 10:36:00,
2013-01-29 05:38:00,35.3,33.2,29.83,ESE,110,0.0,-999.0,92,0.13,,,0.02,Wunderground v.1.15,2013-01-29 10:38:00,
2013-01-29 05:39:00,35.3,33.2,29.83,ESE,110,0.0,-999.0,92,0.13,,,0.03,Wunderground v.1.15,2013-01-29 10:39:00,
2013-01-29 05:40:00,35.3,33.2,29.83,ESE,110,1.0,-999.0,92,0.27,,,0.04,Wunderground v.1.15,2013-01-29 10:40:00,
2013-01-29 05:41:00,35.3,33.2,29.83,East,89,1.0,-999.0,92,0.27,,,0.04,Wunderground v.1.15,2013-01-29 10:41:00,
2013-01-29 05:43:00,35.3,33.2,29.83,NE,40,0.0,-999.0,92,0.15,,,0.04,Wunderground v.1.15,2013-01-29 10:43:00,
2013-01-29 05:45:00,35.3,33.2,29.83,NE,40,0.0,-999.0,92,0.12,,,0.04,Wunderground v.1.15,2013-01-29 10:45:00,
2013-01-29 05:46:00,35.5,33.4,29.83,ESE,113,0.0,-999.0,92,0.09,,,0.04,Wunderground v.1.15,2013-01-29 10:46:00,
2013-01-29 05:50:00,35.5,33.4,29.83,ESE,113,0.0,-999.0,92,0.07,,,0.04,Wunderground v.1.15,2013-01-29 10:50:00,
2013-01-29 05:51:00,35.5,33.4,29.83,East,96,0.0,-999.0,92,0.07,,,0.05,Wunderground v.1.15,2013-01-29 10:51:00,
2013-01-29 05:52:00,35.5,33.4,29.83,East,96,0.0,-999.0,92,0.07,,,0.05,Wunderground v.1.15,2013-01-29 10:52:00,
2013-01-29 05:55:00,35.5,33.7,29.83,East,96,0.0,-999.0,93,0.07,,,0.05,Wunderground v.1.15,2013-01-29 10:55:00,
2013-01-29 05:56:00,35.5,33.7,29.83,East,96,0.0,-999.0,93,0.07,,,0.05,Wunderground v.1.15,2013-01-29 10:56:00,
2013-01-29 05:57:00,35.5,33.7,29.83,East,96,0.0,-999.0,93,0.07,,,0.05,Wunderground v.1.15,2013-01-29 10:57:00,
2013-01-29 06:00:00,35.5,33.7,29.83,East,96,0.0,-999.0,93,0.05,,,0.05,Wunderground v.1.15,2013-01-29 11:00:00,
2013-01-29 06:01:00,35.5,33.4,29.83,East,96,0.0,-999.0,92,0.05,,,0.05,Wunderground v.1.15,2013-01-29 11:01:00,
2013-01-29 06:02:00,35.5,33.7,29.83,East,96,0.0,-999.0,93,0.04,,,0.05,Wunderground v.1.15,2013-01-29 11:02:00,
2013-01-29 06:05:00,35.5,33.7,29.83,East,96,1.0,-999.0,93,0.00,,,0.05,Wunderground v.1.15,2013-01-29 11:05:00,
2013-01-29 06:07:00,35.5,33.7,29.83,ESE,103,2.0,-999.0,93,0.00,,,0.05,Wunderground v.1.15,2013-01-29 11:07:00,
2013-01-29 06:10:00,35.6,33.8,29.83,ESE,103,0.0,-999.0,93,0.00,,,0.05,Wunderground v.1.15,2013-01-29 11:10:00,
2013-01-29 06:12:00,35.6,33.8,29.83,ESE,103,0.0,-999.0,93,0.00,,,0.05,Wunderground v.1.15,2013-01-29 11:12:00,
2013-01-29 06:13:00,35.6,33.8,29.83,ESE,103,0.0,-999.0,93,0.00,,,0.06,Wunderground v.1.15,2013-01-29 11:13:00,
2013-01-29 06:16:00,35.6,33.8,29.87,ESE,103,0.0,-999.0,93,0.00,,,0.06,Wunderground v.1.15,2013-01-29 11:16:00,
2013-01-29 06:17:00,35.6,33.8,29.87,ESE,103,0.0,-999.0,93,0.00,,,0.06,Wunderground v.1.15,2013-01-29 11:17:00,
2013-01-29 06:18:00,35.6,33.8,29.87,ESE,102,1.0,-999.0,93,0.11,,,0.06,Wunderground v.1.15,2013-01-29 11:18:00,
2013-01-29 06:22:00,35.5,33.7,29.87,ESE,103,0.0,-999.0,93,0.23,,,0.08,Wunderground v.1.15,2013-01-29 11:22:00,
2013-01-29 06:23:00,35.5,33.7,29.87,ESE,103,0.0,-999.0,93,0.14,,,0.08,Wunderground v.1.15,2013-01-29 11:23:00,
2013-01-29 06:27:00,35.5,33.7,29.87,ESE,103,0.0,-999.0,93,0.63,,,0.11,Wunderground v.1.15,2013-01-29 11:27:00,
2013-01-29 06:28:00,35.5,33.7,29.87,ESE,103,0.0,-999.0,93,0.31,,,0.12,Wunderground v.1.15,2013-01-29 11:28:00,
2013-01-29 06:29:00,35.5,33.7,29.87,ESE,103,0.0,-999.0,93,0.17,,,0.12,Wunderground v.1.15,2013-01-29 11:29:00,
2013-01-29 06:32:00,35.3,33.5,29.82,ESE,103,0.0,-999.0,93,0.10,,,0.12,Wunderground v.1.15,2013-01-29 11:32:00,
2013-01-29 06:33:00,35.3,33.5,29.82,ESE,103,0.0,-999.0,93,0.08,,,0.12,Wunderground v.1.15,2013-01-29 11:33:00,
2013-01-29 06:35:00,35.3,33.5,29.82,ESE,103,0.0,-999.0,93,0.07,,,0.12,Wunderground v.1.15,2013-01-29 11:35:00,
2013-01-29 06:38:00,35.5,33.7,29.82,ESE,103,0.0,-999.0,93,0.05,,,0.12,Wunderground v.1.15,2013-01-29 11:38:00,
2013-01-29 06:39:00,35.5,33.7,29.82,ESE,103,0.0,-999.0,93,0.05,,,0.12,Wunderground v.1.15,2013-01-29 11:39:00,
2013-01-29 06:40:00,35.5,33.7,29.82,ESE,103,0.0,-999.0,93,0.04,,,0.12,Wunderground v.1.15,2013-01-29 11:40:00,
2013-01-29 06:43:00,35.6,33.8,29.82,ESE,103,0.0,-999.0,93,0.00,,,0.12,Wunderground v.1.15,2013-01-29 11:43:00,
2013-01-29 06:44:00,35.6,33.8,29.82,ESE,103,0.0,-999.0,93,0.00,,,0.13,Wunderground v.1.15,2013-01-29 11:44:00,
2013-01-29 06:47:00,35.8,34.0,29.81,ESE,103,0.0,-999.0,93,0.00,,,0.13,Wunderground v.1.15,2013-01-29 11:47:00,
2013-01-29 06:48:00,35.8,34.0,29.81,ESE,103,0.0,-999.0,93,0.00,,,0.13,Wunderground v.1.15,2013-01-29 11:48:00,
2013-01-29 06:49:00,35.8,34.0,29.81,ESE,103,1.0,-999.0,93,0.00,,,0.13,Wunderground v.1.15,2013-01-29 11:49:00,
2013-01-29 06:50:00,35.8,34.0,29.81,ESE,103,0.0,-999.0,93,0.00,,,0.13,Wunderground v.1.15,2013-01-29 11:50:00,
2013-01-29 06:52:00,35.8,34.0,29.81,ESE,103,0.0,-999.0,93,0.00,,,0.13,Wunderground v.1.15,2013-01-29 11:52:00,
2013-01-29 06:54:00,35.9,34.1,29.81,ESE,103,0.0,-999.0,93,0.00,,,0.13,Wunderground v.1.15,2013-01-29 11:54:00,
2013-01-29 06:55:00,35.9,34.1,29.81,ESE,103,0.0,-999.0,93,0.00,,,0.13,Wunderground v.1.15,2013-01-29 11:55:00,
2013-01-29 06:57:00,35.9,34.1,29.81,ESE,112,1.0,-999.0,93,0.00,,,0.13,Wunderground v.1.15,2013-01-29 11:57:00,
2013-01-29 06:59:00,36.0,34.2,29.81,ESE,112,0.0,-999.0,93,0.00,,,0.13,Wunderground v.1.15,2013-01-29 11:59:00,
2013-01-29 07:00:00,36.0,34.2,29.81,ESE,112,0.0,-999.0,93,0.00,,,0.13,Wunderground v.1.15,2013-01-29 12:00:00,
2013-01-29 07:01:00,36.0,34.2,29.80,ESE,112,0.0,-999.0,93,0.00,,,0.13,Wunderground v.1.15,2013-01-29 12:01:00,
2013-01-29 07:03:00,36.0,34.2,29.80,ESE,112,0.0,-999.0,93,0.00,,,0.13,Wunderground v.1.15,2013-01-29 12:03:00,
2013-01-29 07:04:00,36.0,34.2,29.80,ESE,112,0.0,-999.0,93,0.00,,,0.13,Wunderground v.1.15,2013-01-29 12:04:00,
2013-01-29 07:05:00,36.0,34.2,29.80,ESE,112,0.0,-999.0,93,0.00,,,0.13,Wunderground v.1.15,2013-01-29 12:05:00,
2013-01-29 07:06:00,36.0,34.2,29.80,ESE,112,0.0,-999.0,93,0.00,,,0.13,Wunderground v.1.15,2013-01-29 12:06:00,
2013-01-29 07:08:00,36.0,34.2,29.80,ESE,112,0.0,-999.0,93,0.00,,,0.13,Wunderground v.1.15,2013-01-29 12:08:00,
2013-01-29 07:10:00,36.0,34.2,29.80,ESE,112,1.0,-999.0,93,0.00,,,0.13,Wunderground v.1.15,2013-01-29 12:10:00,
2013-01-29 07:11:00,36.0,34.2,29.80,ESE,112,0.0,-999.0,93,0.00,,,0.13,Wunderground v.1.15,2013-01-29 12:11:00,
2013-01-29 07:13:00,36.0,34.2,29.80,ESE,112,0.0,-999.0,93,0.00,,,0.13,Wunderground v.1.15,2013-01-29 12:13:00,
2013-01-29 07:15:00,36.0,34.2,29.80,ESE,112,0.0,-999.0,93,0.00,,,0.13,Wunderground v.1.15,2013-01-29 12:15:00,
2013-01-29 07:16:00,36.0,34.2,29.80,ESE,112,0.0,-999.0,93,0.00,,,0.13,Wunderground v.1.15,2013-01-29 12:16:00,
2013-01-29 07:19:00,36.0,34.2,29.80,ESE,112,0.0,-999.0,93,0.00,,,0.13,Wunderground v.1.15,2013-01-29 12:19:00,
2013-01-29 07:21:00,36.0,34.2,29.80,ESE,112,0.0,-999.0,93,0.00,,,0.13,Wunderground v.1.15,2013-01-29 12:21:00,
2013-01-29 07:22:00,36.0,34.2,29.80,ESE,112,0.0,-999.0,93,0.00,,,0.13,Wunderground v.1.15,2013-01-29 12:22:00,
2013-01-29 07:24:00,36.2,34.4,29.80,ESE,112,0.0,-999.0,93,0.00,,,0.13,Wunderground v.1.15,2013-01-29 12:24:00,
2013-01-29 07:27:00,36.2,34.4,29.80,ESE,112,0.0,-999.0,93,0.00,,,0.13,Wunderground v.1.15,2013-01-29 12:27:00,
2013-01-29 07:28:00,36.2,34.4,29.80,East,93,0.0,-999.0,93,0.00,,,0.13,Wunderground v.1.15,2013-01-29 12:28:00,
2013-01-29 07:30:00,36.2,34.4,29.80,East,93,0.0,-999.0,93,0.00,,,0.13,Wunderground v.1.15,2013-01-29 12:30:00,
2013-01-29 07:32:00,36.2,34.4,29.78,East,93,0.0,-999.0,93,0.00,,,0.13,Wunderground v.1.15,2013-01-29 12:32:00,
2013-01-29 07:34:00,36.2,34.4,29.78,East,93,0.0,-999.0,93,0.00,,,0.13,Wunderground v.1.15,2013-01-29 12:34:00,
2013-01-29 07:35:00,36.2,34.4,29.78,East,93,0.0,-999.0,93,0.00,,,0.13,Wunderground v.1.15,2013-01-29 12:35:00,
2013-01-29 07:37:00,36.2,34.4,29.78,East,93,0.0,-999.0,93,0.00,,,0.13,Wunderground v.1.15,2013-01-29 12:37:00,
2013-01-29 07:39:00,36.2,34.4,29.78,East,93,0.0,-999.0,93,0.00,,,0.13,Wunderground v.1.15,2013-01-29 12:39:00,
2013-01-29 07:40:00,36.2,34.4,29.78,East,93,0.0,-999.0,93,0.00,,,0.13,Wunderground v.1.15,2013-01-29 12:40:00,
2013-01-29 07:42:00,36.2,34.4,29.78,East,93,0.0,-999.0,93,0.00,,,0.14,Wunderground v.1.15,2013-01-29 12:42:00,
2013-01-29 07:44:00,36.2,34.4,29.78,East,93,0.0,-999.0,93,0.00,,,0.14,Wunderground v.1.15,2013-01-29 12:44:00,
2013-01-29 07:46:00,36.2,34.4,29.78,East,93,0.0,-999.0,93,0.00,,,0.14,Wunderground v.1.15,2013-01-29 12:46:00,
2013-01-29 07:47:00,36.2,34.4,29.78,East,93,0.0,-999.0,93,0.00,,,0.14,Wunderground v.1.15,2013-01-29 12:47:00,
2013-01-29 07:48:00,36.0,34.2,29.78,East,93,0.0,-999.0,93,0.00,,,0.14,Wunderground v.1.15,2013-01-29 12:48:00,
2013-01-29 07:49:00,36.0,34.2,29.78,East,93,0.0,-999.0,93,0.00,,,0.14,Wunderground v.1.15,2013-01-29 12:49:00,
2013-01-29 07:51:00,36.0,34.2,29.78,East,93,0.0,-999.0,93,0.00,,,0.14,Wunderground v.1.15,2013-01-29 12:51:00,
2013-01-29 07:52:00,36.0,34.2,29.78,East,93,0.0,-999.0,93,0.00,,,0.14,Wunderground v.1.15,2013-01-29 12:52:00,
2013-01-29 07:53:00,36.0,34.2,29.78,East,93,0.0,-999.0,93,0.00,,,0.14,Wunderground v.1.15,2013-01-29 12:53:00,
2013-01-29 07:55:00,36.0,34.2,29.78,East,93,0.0,-999.0,93,0.00,,,0.14,Wunderground v.1.15,2013-01-29 12:55:00,
2013-01-29 07:57:00,36.2,34.4,29.78,East,93,0.0,-999.0,93,0.00,,,0.14,Wunderground v.1.15,2013-01-29 12:57:00,
2013-01-29 07:58:00,36.2,34.4,29.78,East,93,0.0,-999.0,93,0.00,,,0.14,Wunderground v.1.15,2013-01-29 12:58:00,
2013-01-29 07:59:00,36.2,34.4,29.78,East,93,0.0,-999.0,93,0.00,,,0.14,Wunderground v.1.15,2013-01-29 12:59:00,
2013-01-29 08:00:00,36.2,34.4,29.78,East,93,0.0,-999.0,93,0.00,,,0.14,Wunderground v.1.15,2013-01-29 13:00:00,
2013-01-29 08:03:00,36.2,34.4,29.78,East,93,0.0,-999.0,93,0.00,,,0.15,Wunderground v.1.15,2013-01-29 13:03:00,
2013-01-29 08:04:00,36.2,34.4,29.78,East,93,0.0,-999.0,93,0.00,,,0.15,Wunderground v.1.15,2013-01-29 13:04:00,
2013-01-29 08:05:00,36.2,34.4,29.78,East,93,0.0,-999.0,93,0.00,,,0.15,Wunderground v.1.15,2013-01-29 13:05:00,
2013-01-29 08:08:00,36.2,34.4,29.78,East,93,0.0,-999.0,93,0.00,,,0.15,Wunderground v.1.15,2013-01-29 13:08:00,
2013-01-29 08:09:00,36.2,34.4,29.78,East,93,0.0,-999.0,93,0.00,,,0.15,Wunderground v.1.15,2013-01-29 13:09:00,
2013-01-29 08:10:00,36.2,34.4,29.78,East,93,0.0,-999.0,93,0.07,,,0.16,Wunderground v.1.15,2013-01-29 13:10:00,
2013-01-29 08:14:00,36.2,34.4,29.78,NNW,347,0.0,-999.0,93,0.07,,,0.16,Wunderground v.1.15,2013-01-29 13:14:00,
2013-01-29 08:15:00,36.3,34.5,29.78,NNW,347,0.0,-999.0,93,0.07,,,0.16,Wunderground v.1.15,2013-01-29 13:15:00,
2013-01-29 08:16:00,36.3,34.5,29.80,NNW,347,0.0,-999.0,93,0.11,,,0.16,Wunderground v.1.15,2013-01-29 13:16:00,
2013-01-29 08:19:00,36.3,34.5,29.80,NNW,347,1.0,-999.0,93,0.53,,,0.18,Wunderground v.1.15,2013-01-29 13:19:00,
2013-01-29 08:20:00,36.3,34.5,29.80,NNW,347,0.0,-999.0,93,0.74,,,0.20,Wunderground v.1.15,2013-01-29 13:20:00,
2013-01-29 08:21:00,36.3,34.5,29.80,NNW,347,0.0,-999.0,93,0.40,,,0.20,Wunderground v.1.15,2013-01-29 13:21:00,
2013-01-29 08:24:00,36.3,34.5,29.80,NNW,347,0.0,-999.0,93,0.51,,,0.23,Wunderground v.1.15,2013-01-29 13:24:00,
2013-01-29 08:25:00,36.3,34.5,29.80,North,353,0.0,-999.0,93,4.06,,,0.23,Wunderground v.1.15,2013-01-29 13:25:00,
2013-01-29 08:26:00,36.3,34.5,29.80,North,353,0.0,-999.0,93,4.06,,,0.29,Wunderground v.1.15,2013-01-29 13:26:00,
2013-01-29 08:29:00,36.3,34.5,29.80,North,353,0.0,-999.0,93,0.49,,,0.31,Wunderground v.1.15,2013-01-29 13:29:00,
2013-01-29 08:31:00,36.3,34.5,29.78,North,353,0.0,-999.0,93,0.15,,,0.31,Wunderground v.1.15,2013-01-29 13:31:00,
2013-01-29 08:32:00,36.3,34.5,29.78,North,353,0.0,-999.0,93,0.13,,,0.31,Wunderground v.1.15,2013-01-29 13:32:00,
2013-01-29 08:34:00,36.3,34.5,29.78,North,353,0.0,-999.0,93,0.09,,,0.31,Wunderground v.1.15,2013-01-29 13:34:00,
2013-01-29 08:36:00,36.3,34.5,29.78,North,353,0.0,-999.0,93,0.07,,,0.31,Wunderground v.1.15,2013-01-29 13:36:00,
2013-01-29 08:37:00,36.3,34.5,29.78,North,353,0.0,-999.0,93,0.06,,,0.31,Wunderground v.1.15,2013-01-29 13:37:00,
2013-01-29 08:40:00,36.3,34.5,29.78,North,353,0.0,-999.0,93,0.05,,,0.31,Wunderground v.1.15,2013-01-29 13:40:00,
2013-01-29 08:41:00,36.3,34.5,29.78,North,353,0.0,-999.0,93,0.04,,,0.31,Wunderground v.1.15,2013-01-29 13:41:00,
2013-01-29 08:42:00,36.3,34.5,29.78,North,353,0.0,-999.0,93,0.04,,,0.31,Wunderground v.1.15,2013-01-29 13:42:00,
2013-01-29 08:45:00,36.3,34.5,29.78,North,353,0.0,-999.0,93,0.00,,,0.31,Wunderground v.1.15,2013-01-29 13:45:00,
2013-01-29 08:47:00,36.3,34.5,29.78,North,354,0.0,-999.0,93,0.00,,,0.32,Wunderground v.1.15,2013-01-29 13:47:00,
2013-01-29 08:48:00,36.3,34.5,29.78,North,354,0.0,-999.0,93,0.00,,,0.32,Wunderground v.1.15,2013-01-29 13:48:00,
2013-01-29 08:51:00,36.3,34.5,29.78,North,354,0.0,-999.0,93,0.13,,,0.34,Wunderground v.1.15,2013-01-29 13:51:00,
2013-01-29 08:52:00,36.3,34.5,29.78,North,354,0.0,-999.0,93,0.11,,,0.34,Wunderground v.1.15,2013-01-29 13:52:00,
2013-01-29 08:53:00,36.3,34.5,29.78,North,0,1.0,-999.0,93,0.09,,,0.34,Wunderground v.1.15,2013-01-29 13:53:00,
2013-01-29 08:56:00,36.3,34.5,29.78,NNE,20,0.0,-999.0,93,0.06,,,0.34,Wunderground v.1.15,2013-01-29 13:56:00,
2013-01-29 08:57:00,36.3,34.5,29.78,NNE,20,0.0,-999.0,93,0.05,,,0.34,Wunderground v.1.15,2013-01-29 13:57:00,
2013-01-29 08:58:00,36.3,34.5,29.78,NNE,20,0.0,-999.0,93,0.05,,,0.34,Wunderground v.1.15,2013-01-29 13:58:00,
2013-01-29 09:02:00,36.3,34.5,29.78,NNE,20,0.0,-999.0,93,0.04,,,0.34,Wunderground v.1.15,2013-01-29 14:02:00,
2013-01-29 09:03:00,36.3,34.5,29.78,NNE,20,1.0,-999.0,93,0.04,,,0.34,Wunderground v.1.15,2013-01-29 14:03:00,
2013-01-29 09:04:00,36.3,34.5,29.78,NNE,20,0.0,-999.0,93,0.04,,,0.34,Wunderground v.1.15,2013-01-29 14:04:00,
2013-01-29 09:07:00,36.3,34.5,29.78,NNE,20,0.0,-999.0,93,0.00,,,0.34,Wunderground v.1.15,2013-01-29 14:07:00,
2013-01-29 09:08:00,36.3,34.5,29.78,NNE,20,0.0,-999.0,93,0.00,,,0.34,Wunderground v.1.15,2013-01-29 14:08:00,
2013-01-29 09:09:00,36.3,34.5,29.78,NNE,20,0.0,-999.0,93,0.00,,,0.34,Wunderground v.1.15,2013-01-29 14:09:00,
2013-01-29 09:12:00,36.3,34.5,29.78,NNE,20,0.0,-999.0,93,0.00,,,0.34,Wunderground v.1.15,2013-01-29 14:12:00,
2013-01-29 09:13:00,36.3,34.5,29.78,NNE,20,0.0,-999.0,93,0.00,,,0.34,Wunderground v.1.15,2013-01-29 14:13:00,
2013-01-29 09:14:00,36.3,34.5,29.78,NNE,20,0.0,-999.0,93,0.00,,,0.34,Wunderground v.1.15,2013-01-29 14:14:00,
2013-01-29 09:17:00,36.3,34.5,29.78,NNE,20,0.0,-999.0,93,0.00,,,0.34,Wunderground v.1.15,2013-01-29 14:17:00,
2013-01-29 09:19:00,36.3,34.5,29.78,NNE,20,0.0,-999.0,93,0.00,,,0.34,Wunderground v.1.15,2013-01-29 14:19:00,
2013-01-29 09:22:00,36.3,34.5,29.78,NNE,20,0.0,-999.0,93,0.00,,,0.34,Wunderground v.1.15,2013-01-29 14:22:00,
2013-01-29 09:25:00,36.3,34.5,29.78,NNE,20,0.0,-999.0,93,0.00,,,0.34,Wunderground v.1.15,2013-01-29 14:25:00,
2013-01-29 09:27:00,36.3,34.5,29.78,NNE,20,0.0,-999.0,93,0.00,,,0.34,Wunderground v.1.15,2013-01-29 14:27:00,
2013-01-29 09:30:00,36.5,34.7,29.78,NNE,20,0.0,-999.0,93,0.00,,,0.34,Wunderground v.1.15,2013-01-29 14:30:00,
2013-01-29 09:32:00,36.5,34.7,29.78,NNE,20,0.0,-999.0,93,0.00,,,0.34,Wunderground v.1.15,2013-01-29 14:32:00,
2013-01-29 09:35:00,36.5,34.7,29.78,NNE,20,0.0,-999.0,93,0.00,,,0.34,Wunderground v.1.15,2013-01-29 14:35:00,
2013-01-29 09:36:00,36.5,34.7,29.78,NNE,20,0.0,-999.0,93,0.00,,,0.34,Wunderground v.1.15,2013-01-29 14:36:00,
2013-01-29 09:37:00,36.5,34.7,29.78,NNE,20,0.0,-999.0,93,0.00,,,0.34,Wunderground v.1.15,2013-01-29 14:37:00,
2013-01-29 09:38:00,36.5,34.7,29.78,NNE,20,0.0,-999.0,93,0.00,,,0.34,Wunderground v.1.15,2013-01-29 14:38:00,
2013-01-29 09:41:00,36.3,34.5,29.78,NNE,20,0.0,-999.0,93,0.00,,,0.34,Wunderground v.1.15,2013-01-29 14:41:00,
2013-01-29 09:42:00,36.3,34.5,29.78,NNE,20,0.0,-999.0,93,0.00,,,0.34,Wunderground v.1.15,2013-01-29 14:42:00,
2013-01-29 09:43:00,36.3,34.5,29.78,NNE,20,0.0,-999.0,93,0.00,,,0.34,Wunderground v.1.15,2013-01-29 14:43:00,
2013-01-29 09:46:00,36.3,34.5,29.77,NNE,20,0.0,-999.0,93,0.00,,,0.34,Wunderground v.1.15,2013-01-29 14:46:00,
2013-01-29 09:47:00,36.3,34.5,29.77,NNE,20,0.0,-999.0,93,0.00,,,0.34,Wunderground v.1.15,2013-01-29 14:47:00,
2013-01-29 09:48:00,36.5,34.7,29.77,NNE,20,0.0,-999.0,93,0.00,,,0.34,Wunderground v.1.15,2013-01-29 14:48:00,
2013-01-29 09:52:00,36.5,34.7,29.77,NNE,20,0.0,-999.0,93,0.00,,,0.34,Wunderground v.1.15,2013-01-29 14:52:00,
2013-01-29 09:54:00,36.5,34.7,29.77,NNE,20,0.0,-999.0,93,0.00,,,0.34,Wunderground v.1.15,2013-01-29 14:54:00,
2013-01-29 09:57:00,36.5,34.7,29.77,NNE,20,0.0,-999.0,93,0.00,,,0.34,Wunderground v.1.15,2013-01-29 14:57:00,
2013-01-29 09:58:00,36.5,34.7,29.77,NNE,20,0.0,-999.0,93,0.00,,,0.34,Wunderground v.1.15,2013-01-29 14:58:00,
2013-01-29 09:59:00,36.6,34.8,29.77,NNE,20,0.0,-999.0,93,0.00,,,0.34,Wunderground v.1.15,2013-01-29 14:59:00,
2013-01-29 10:00:00,36.6,34.8,29.77,NNE,20,0.0,-999.0,93,0.00,,,0.34,Wunderground v.1.15,2013-01-29 15:00:00,
2013-01-29 10:02:00,36.6,34.8,29.75,NNE,20,0.0,-999.0,93,0.00,,,0.34,Wunderground v.1.15,2013-01-29 15:02:00,
2013-01-29 10:03:00,36.6,34.8,29.75,NNE,20,0.0,-999.0,93,0.00,,,0.34,Wunderground v.1.15,2013-01-29 15:03:00,
2013-01-29 10:04:00,36.6,34.8,29.75,NNE,20,0.0,-999.0,93,0.00,,,0.34,Wunderground v.1.15,2013-01-29 15:04:00,
2013-01-29 10:05:00,36.6,34.8,29.75,NNE,20,0.0,-999.0,93,0.00,,,0.34,Wunderground v.1.15,2013-01-29 15:05:00,
2013-01-29 10:07:00,36.6,34.8,29.75,NNE,20,0.0,-999.0,93,0.00,,,0.34,Wunderground v.1.15,2013-01-29 15:07:00,
2013-01-29 10:09:00,36.8,35.0,29.75,NNE,20,0.0,-999.0,93,0.00,,,0.34,Wunderground v.1.15,2013-01-29 15:09:00,
2013-01-29 10:10:00,36.8,35.0,29.75,NNE,20,0.0,-999.0,93,0.00,,,0.34,Wunderground v.1.15,2013-01-29 15:10:00,
2013-01-29 10:12:00,36.8,35.2,29.75,NNE,20,0.0,-999.0,94,0.00,,,0.34,Wunderground v.1.15,2013-01-29 15:12:00,
2013-01-29 10:14:00,36.8,35.2,29.75,NNE,20,0.0,-999.0,94,0.00,,,0.34,Wunderground v.1.15,2013-01-29 15:14:00,
2013-01-29 10:16:00,36.8,35.2,29.75,NNE,20,0.0,-999.0,94,0.00,,,0.34,Wunderground v.1.15,2013-01-29 15:16:00,
2013-01-29 10:18:00,36.8,35.2,29.75,NNE,20,0.0,-999.0,94,0.00,,,0.35,Wunderground v.1.15,2013-01-29 15:18:00,
2013-01-29 10:19:00,36.8,35.2,29.75,NNE,20,0.0,-999.0,94,0.00,,,0.35,Wunderground v.1.15,2013-01-29 15:19:00,
2013-01-29 10:20:00,36.8,35.2,29.75,NNE,20,0.0,-999.0,94,0.00,,,0.35,Wunderground v.1.15,2013-01-29 15:20:00,
2013-01-29 10:22:00,36.8,35.2,29.75,NNE,20,0.0,-999.0,94,0.00,,,0.35,Wunderground v.1.15,2013-01-29 15:22:00,
2013-01-29 10:24:00,36.9,35.3,29.75,NNE,20,0.0,-999.0,94,0.00,,,0.35,Wunderground v.1.15,2013-01-29 15:24:00,
2013-01-29 10:25:00,36.9,35.3,29.75,NNE,20,0.0,-999.0,94,0.00,,,0.35,Wunderground v.1.15,2013-01-29 15:25:00,
2013-01-29 10:26:00,36.9,35.3,29.75,NNE,20,0.0,-999.0,94,0.00,,,0.35,Wunderground v.1.15,2013-01-29 15:26:00,
2013-01-29 10:27:00,36.9,35.3,29.75,NNE,20,0.0,-999.0,94,0.00,,,0.35,Wunderground v.1.15,2013-01-29 15:27:00,
2013-01-29 10:29:00,36.9,35.3,29.75,NNE,20,0.0,-999.0,94,0.00,,,0.35,Wunderground v.1.15,2013-01-29 15:29:00,
2013-01-29 10:30:00,36.9,35.3,29.75,NNE,20,0.0,-999.0,94,0.00,,,0.35,Wunderground v.1.15,2013-01-29 15:30:00,
2013-01-29 10:31:00,36.9,35.3,29.75,NNE,20,0.0,-999.0,94,0.00,,,0.35,Wunderground v.1.15,2013-01-29 15:31:00,
2013-01-29 10:32:00,36.9,35.3,29.75,NNE,20,0.0,-999.0,94,0.00,,,0.35,Wunderground v.1.15,2013-01-29 15:32:00,
2013-01-29 10:35:00,36.9,35.3,29.75,NNE,20,0.0,-999.0,94,0.00,,,0.35,Wunderground v.1.15,2013-01-29 15:35:00,
2013-01-29 10:36:00,36.9,35.3,29.75,NNE,20,0.0,-999.0,94,0.00,,,0.35,Wunderground v.1.15,2013-01-29 15:36:00,
2013-01-29 10:37:00,37.0,35.4,29.75,NNE,20,0.0,-999.0,94,0.00,,,0.35,Wunderground v.1.15,2013-01-29 15:37:00,
2013-01-29 10:40:00,37.0,35.4,29.75,NNE,20,0.0,-999.0,94,0.00,,,0.35,Wunderground v.1.15,2013-01-29 15:40:00,
2013-01-29 10:41:00,37.0,35.4,29.75,NNE,20,0.0,-999.0,94,0.00,,,0.35,Wunderground v.1.15,2013-01-29 15:41:00,
2013-01-29 10:42:00,37.0,35.4,29.75,NNE,20,0.0,-999.0,94,0.00,,,0.35,Wunderground v.1.15,2013-01-29 15:42:00,
2013-01-29 10:46:00,37.2,35.6,29.75,NNE,20,0.0,-999.0,94,0.00,,,0.35,Wunderground v.1.15,2013-01-29 15:46:00,
2013-01-29 10:48:00,37.2,35.6,29.75,NNE,20,0.0,-999.0,94,0.00,,,0.35,Wunderground v.1.15,2013-01-29 15:48:00,
2013-01-29 10:51:00,37.2,35.6,29.75,NNE,20,0.0,-999.0,94,0.00,,,0.35,Wunderground v.1.15,2013-01-29 15:51:00,
2013-01-29 10:53:00,37.2,35.6,29.75,NNE,20,0.0,-999.0,94,0.00,,,0.35,Wunderground v.1.15,2013-01-29 15:53:00,
2013-01-29 10:55:00,37.3,35.7,29.75,NNE,20,0.0,-999.0,94,0.00,,,0.35,Wunderground v.1.15,2013-01-29 15:55:00,
2013-01-29 10:56:00,37.3,35.7,29.75,NNE,20,0.0,-999.0,94,0.00,,,0.35,Wunderground v.1.15,2013-01-29 15:56:00,
2013-01-29 10:57:00,37.3,35.7,29.75,NNE,20,0.0,-999.0,94,0.00,,,0.35,Wunderground v.1.15,2013-01-29 15:57:00,
2013-01-29 10:58:00,37.3,35.7,29.75,NNE,20,0.0,-999.0,94,0.00,,,0.35,Wunderground v.1.15,2013-01-29 15:58:00,
2013-01-29 11:00:00,37.3,35.7,29.75,NNE,20,0.0,-999.0,94,0.00,,,0.35,Wunderground v.1.15,2013-01-29 16:00:00,
2013-01-29 11:02:00,37.3,35.7,29.75,NNE,20,0.0,-999.0,94,0.00,,,0.35,Wunderground v.1.15,2013-01-29 16:02:00,
2013-01-29 11:03:00,37.5,35.9,29.75,NNE,20,0.0,-999.0,94,0.00,,,0.35,Wunderground v.1.15,2013-01-29 16:03:00,
2013-01-29 11:05:00,37.5,35.9,29.75,NNE,20,0.0,-999.0,94,0.00,,,0.35,Wunderground v.1.15,2013-01-29 16:05:00,
2013-01-29 11:07:00,37.5,35.9,29.75,NNE,20,0.0,-999.0,94,0.00,,,0.35,Wunderground v.1.15,2013-01-29 16:07:00,
2013-01-29 11:08:00,37.5,35.9,29.75,NNE,20,0.0,-999.0,94,0.00,,,0.35,Wunderground v.1.15,2013-01-29 16:08:00,
2013-01-29 11:11:00,37.5,35.9,29.75,NNE,20,0.0,-999.0,94,0.00,,,0.35,Wunderground v.1.15,2013-01-29 16:11:00,
2013-01-29 11:12:00,37.6,36.0,29.75,NNE,20,0.0,-999.0,94,0.00,,,0.35,Wunderground v.1.15,2013-01-29 16:12:00,
2013-01-29 11:13:00,37.6,36.0,29.75,NNE,20,0.0,-999.0,94,0.00,,,0.35,Wunderground v.1.15,2013-01-29 16:13:00,
2013-01-29 11:14:00,37.6,36.0,29.75,NNE,20,0.0,-999.0,94,0.00,,,0.35,Wunderground v.1.15,2013-01-29 16:14:00,
2013-01-29 11:16:00,37.6,36.0,29.74,NNE,20,0.0,-999.0,94,0.00,,,0.35,Wunderground v.1.15,2013-01-29 16:16:00,
2013-01-29 11:17:00,37.6,36.0,29.74,NNE,20,0.0,-999.0,94,0.00,,,0.35,Wunderground v.1.15,2013-01-29 16:17:00,
2013-01-29 11:18:00,37.6,36.0,29.74,NNE,20,0.0,-999.0,94,0.00,,,0.35,Wunderground v.1.15,2013-01-29 16:18:00,
2013-01-29 11:19:00,37.6,36.0,29.74,NNE,20,0.0,-999.0,94,0.00,,,0.35,Wunderground v.1.15,2013-01-29 16:19:00,
2013-01-29 11:21:00,37.8,36.2,29.74,NNE,20,0.0,-999.0,94,0.00,,,0.35,Wunderground v.1.15,2013-01-29 16:21:00,
2013-01-29 11:22:00,37.8,36.2,29.74,NNE,20,0.0,-999.0,94,0.00,,,0.35,Wunderground v.1.15,2013-01-29 16:22:00,
2013-01-29 11:24:00,37.8,36.2,29.74,NNE,20,0.0,-999.0,94,0.00,,,0.35,Wunderground v.1.15,2013-01-29 16:24:00,
2013-01-29 11:25:00,37.8,36.2,29.74,NNE,20,0.0,-999.0,94,0.00,,,0.35,Wunderground v.1.15,2013-01-29 16:25:00,
2013-01-29 11:26:00,37.8,36.2,29.74,NNE,20,0.0,-999.0,94,0.00,,,0.35,Wunderground v.1.15,2013-01-29 16:26:00,
2013-01-29 11:29:00,37.8,36.2,29.74,NNE,20,0.0,-999.0,94,0.00,,,0.35,Wunderground v.1.15,2013-01-29 16:29:00,
2013-01-29 11:30:00,37.8,36.2,29.74,NNE,20,0.0,-999.0,94,0.00,,,0.35,Wunderground v.1.15,2013-01-29 16:30:00,
2013-01-29 11:32:00,37.9,36.3,29.74,NNE,20,0.0,-999.0,94,0.00,,,0.35,Wunderground v.1.15,2013-01-29 16:32:00,
2013-01-29 11:34:00,38.0,36.4,29.74,NNE,20,0.0,-999.0,94,0.00,,,0.35,Wunderground v.1.15,2013-01-29 16:34:00,
2013-01-29 11:35:00,38.0,36.4,29.74,NNE,20,0.0,-999.0,94,0.00,,,0.35,Wunderground v.1.15,2013-01-29 16:35:00,
2013-01-29 11:37:00,38.2,36.6,29.74,NNE,20,0.0,-999.0,94,0.00,,,0.35,Wunderground v.1.15,2013-01-29 16:37:00,
2013-01-29 11:40:00,38.2,36.6,29.74,NNE,20,0.0,-999.0,94,0.00,,,0.35,Wunderground v.1.15,2013-01-29 16:40:00,
2013-01-29 11:41:00,38.2,36.6,29.74,NNE,20,0.0,-999.0,94,0.00,,,0.35,Wunderground v.1.15,2013-01-29 16:41:00,
2013-01-29 11:43:00,38.2,36.6,29.74,NNE,20,0.0,-999.0,94,0.00,,,0.35,Wunderground v.1.15,2013-01-29 16:43:00,
2013-01-29 11:45:00,38.3,36.7,29.74,NNE,20,0.0,-999.0,94,0.00,,,0.35,Wunderground v.1.15,2013-01-29 16:45:00,
2013-01-29 11:46:00,38.3,36.7,29.73,NNE,20,0.0,-999.0,94,0.00,,,0.35,Wunderground v.1.15,2013-01-29 16:46:00,
2013-01-29 11:48:00,38.3,36.7,29.73,NNE,20,0.0,-999.0,94,0.00,,,0.35,Wunderground v.1.15,2013-01-29 16:48:00,
2013-01-29 11:50:00,38.5,36.9,29.73,NNE,20,0.0,-999.0,94,0.00,,,0.35,Wunderground v.1.15,2013-01-29 16:50:00,
2013-01-29 11:52:00,38.5,36.9,29.73,NNE,20,0.0,-999.0,94,0.00,,,0.35,Wunderground v.1.15,2013-01-29 16:52:00,
2013-01-29 11:54:00,38.5,36.9,29.73,NNE,20,0.0,-999.0,94,0.00,,,0.35,Wunderground v.1.15,2013-01-29 16:54:00,
2013-01-29 11:55:00,38.5,36.9,29.73,NNE,20,0.0,-999.0,94,0.00,,,0.35,Wunderground v.1.15,2013-01-29 16:55:00,
2013-01-29 11:57:00,38.5,36.9,29.73,NNE,20,0.0,-999.0,94,0.00,,,0.35,Wunderground v.1.15,2013-01-29 16:57:00,
2013-01-29 12:00:00,38.6,37.0,29.73,NNE,20,0.0,-999.0,94,0.00,,,0.35,Wunderground v.1.15,2013-01-29 17:00:00,
2013-01-29 12:02:00,38.6,37.0,29.73,NNE,20,0.0,-999.0,94,0.00,,,0.35,Wunderground v.1.15,2013-01-29 17:02:00,
2013-01-29 12:05:00,38.8,37.2,29.73,NNE,20,0.0,-999.0,94,0.00,,,0.35,Wunderground v.1.15,2013-01-29 17:05:00,
2013-01-29 12:06:00,38.8,37.2,29.73,NNE,20,0.0,-999.0,94,0.00,,,0.35,Wunderground v.1.15,2013-01-29 17:06:00,
2013-01-29 12:07:00,38.8,37.2,29.73,NNE,20,0.0,-999.0,94,0.00,,,0.35,Wunderground v.1.15,2013-01-29 17:07:00,
2013-01-29 12:10:00,38.8,37.2,29.73,NNE,20,0.0,-999.0,94,0.00,,,0.35,Wunderground v.1.15,2013-01-29 17:10:00,
2013-01-29 12:11:00,38.8,37.2,29.73,NNE,20,0.0,-999.0,94,0.00,,,0.35,Wunderground v.1.15,2013-01-29 17:11:00,
2013-01-29 12:12:00,38.8,37.2,29.73,NNE,20,0.0,-999.0,94,0.00,,,0.35,Wunderground v.1.15,2013-01-29 17:12:00,
2013-01-29 12:16:00,38.9,37.3,29.73,NNE,20,0.0,-999.0,94,0.00,,,0.35,Wunderground v.1.15,2013-01-29 17:16:00,
2013-01-29 12:17:00,38.9,37.3,29.73,NNE,20,0.0,-999.0,94,0.00,,,0.35,Wunderground v.1.15,2013-01-29 17:17:00,
2013-01-29 12:21:00,39.1,37.5,29.73,NNE,20,0.0,-999.0,94,0.00,,,0.35,Wunderground v.1.15,2013-01-29 17:21:00,
2013-01-29 12:23:00,39.1,37.5,29.73,NNE,20,0.0,-999.0,94,0.00,,,0.35,Wunderground v.1.15,2013-01-29 17:23:00,
2013-01-29 12:26:00,39.2,37.6,29.73,NNE,20,0.0,-999.0,94,0.00,,,0.35,Wunderground v.1.15,2013-01-29 17:26:00,
2013-01-29 12:27:00,39.2,37.6,29.73,NNE,20,0.0,-999.0,94,0.00,,,0.35,Wunderground v.1.15,2013-01-29 17:27:00,
2013-01-29 12:28:00,39.2,37.6,29.73,NNE,20,0.0,-999.0,94,0.00,,,0.35,Wunderground v.1.15,2013-01-29 17:28:00,
2013-01-29 12:32:00,39.2,37.6,29.72,NNE,20,0.0,-999.0,94,0.70,,,0.37,Wunderground v.1.15,2013-01-29 17:32:00,
2013-01-29 12:33:00,39.2,37.6,29.72,NNE,20,0.0,-999.0,94,0.42,,,0.37,Wunderground v.1.15,2013-01-29 17:33:00,
2013-01-29 12:37:00,39.3,37.7,29.72,NNE,20,0.0,-999.0,94,0.10,,,0.37,Wunderground v.1.15,2013-01-29 17:37:00,
2013-01-29 12:38:00,39.3,37.7,29.72,NNE,20,0.0,-999.0,94,0.10,,,0.37,Wunderground v.1.15,2013-01-29 17:38:00,
2013-01-29 12:39:00,39.3,37.7,29.72,NNE,20,0.0,-999.0,94,0.10,,,0.37,Wunderground v.1.15,2013-01-29 17:39:00,
2013-01-29 12:40:00,39.3,37.7,29.72,NNE,20,0.0,-999.0,94,0.07,,,0.37,Wunderground v.1.15,2013-01-29 17:40:00,
2013-01-29 12:42:00,39.3,37.7,29.72,NNE,20,0.0,-999.0,94,0.05,,,0.37,Wunderground v.1.15,2013-01-29 17:42:00,
2013-01-29 12:43:00,39.3,37.7,29.72,NNE,20,0.0,-999.0,94,0.05,,,0.37,Wunderground v.1.15,2013-01-29 17:43:00,
2013-01-29 12:44:00,39.3,37.7,29.72,NNE,20,0.0,-999.0,94,0.05,,,0.37,Wunderground v.1.15,2013-01-29 17:44:00,
2013-01-29 12:45:00,39.3,37.7,29.68,NNE,20,0.0,-999.0,94,0.04,,,0.37,Wunderground v.1.15,2013-01-29 17:45:00,
2013-01-29 12:48:00,39.3,37.7,29.68,NNE,20,0.0,-999.0,94,0.04,,,0.38,Wunderground v.1.15,2013-01-29 17:48:00,
2013-01-29 12:49:00,39.3,37.7,29.68,NNE,20,0.0,-999.0,94,0.04,,,0.38,Wunderground v.1.15,2013-01-29 17:49:00,
2013-01-29 12:50:00,39.5,37.9,29.68,NNE,20,0.0,-999.0,94,0.04,,,0.38,Wunderground v.1.15,2013-01-29 17:50:00,
2013-01-29 12:53:00,39.6,38.0,29.68,NNE,20,0.0,-999.0,94,0.04,,,0.38,Wunderground v.1.15,2013-01-29 17:53:00,
2013-01-29 12:54:00,39.6,38.0,29.68,NNE,20,0.0,-999.0,94,0.04,,,0.38,Wunderground v.1.15,2013-01-29 17:54:00,
2013-01-29 12:55:00,39.6,38.0,29.68,NNE,20,0.0,-999.0,94,0.04,,,0.38,Wunderground v.1.15,2013-01-29 17:55:00,
2013-01-29 12:58:00,39.6,38.0,29.68,NNE,20,0.0,-999.0,94,0.04,,,0.38,Wunderground v.1.15,2013-01-29 17:58:00,
2013-01-29 12:59:00,39.8,38.2,29.68,NNE,20,0.0,-999.0,94,0.04,,,0.38,Wunderground v.1.15,2013-01-29 17:59:00,
2013-01-29 13:00:00,39.8,38.2,29.68,NNE,20,0.0,-999.0,94,0.04,,,0.38,Wunderground v.1.15,2013-01-29 18:00:00,
2013-01-29 13:01:00,39.9,38.3,29.69,NNE,20,0.0,-999.0,94,0.04,,,0.38,Wunderground v.1.15,2013-01-29 18:01:00,
2013-01-29 13:03:00,40.1,38.5,29.69,NNE,20,0.0,-999.0,94,0.04,,,0.38,Wunderground v.1.15,2013-01-29 18:03:00,
2013-01-29 13:05:00,40.2,38.6,29.69,NNE,20,0.0,-999.0,94,0.00,,,0.38,Wunderground v.1.15,2013-01-29 18:05:00,
2013-01-29 13:06:00,40.3,38.7,29.69,NNE,20,0.0,-999.0,94,0.00,,,0.38,Wunderground v.1.15,2013-01-29 18:06:00,
2013-01-29 13:09:00,40.6,39.0,29.69,NNE,20,0.0,-999.0,94,0.00,,,0.38,Wunderground v.1.15,2013-01-29 18:09:00,
2013-01-29 13:10:00,40.6,39.0,29.69,NNE,20,0.0,-999.0,94,0.00,,,0.38,Wunderground v.1.15,2013-01-29 18:10:00,
2013-01-29 13:11:00,40.8,39.2,29.69,NNE,20,0.0,-999.0,94,0.00,,,0.38,Wunderground v.1.15,2013-01-29 18:11:00,
2013-01-29 13:15:00,42.5,41.2,29.69,SSE,168,0.0,-999.0,95,0.00,,,0.38,Wunderground v.1.15,2013-01-29 18:15:00,
2013-01-29 13:16:00,42.5,41.2,29.68,SSW,212,2.0,-999.0,95,0.00,,,0.38,Wunderground v.1.15,2013-01-29 18:16:00,
2013-01-29 13:20:00,45.5,44.2,29.68,SSW,195,2.0,-999.0,95,0.00,,,0.38,Wunderground v.1.15,2013-01-29 18:20:00,
2013-01-29 13:21:00,46.8,45.4,29.68,SSW,193,2.0,-999.0,95,0.00,,,0.38,Wunderground v.1.15,2013-01-29 18:21:00,
2013-01-29 13:22:00,47.1,45.7,29.68,SSW,192,2.0,-999.0,95,0.00,,,0.38,Wunderground v.1.15,2013-01-29 18:22:00,
2013-01-29 13:25:00,48.3,46.9,29.68,SW,220,3.0,-999.0,95,0.00,,,0.38,Wunderground v.1.15,2013-01-29 18:25:00,
2013-01-29 13:26:00,48.8,47.4,29.68,SW,216,2.0,-999.0,95,0.00,,,0.38,Wunderground v.1.15,2013-01-29 18:26:00,
2013-01-29 13:28:00,48.8,47.4,29.68,SW,216,2.0,-999.0,95,0.00,,,0.38,Wunderground v.1.15,2013-01-29 18:28:00,
2013-01-29 13:30:00,49.6,48.2,29.67,SSW,205,0.0,-999.0,95,0.00,,,0.38,Wunderground v.1.15,2013-01-29 18:30:00,
2013-01-29 13:32:00,50.2,48.8,29.67,South,171,3.0,-999.0,95,0.00,,,0.38,Wunderground v.1.15,2013-01-29 18:32:00,
2013-01-29 13:33:00,50.4,49.3,29.67,SSW,193,7.0,-999.0,96,0.00,,,0.38,Wunderground v.1.15,2013-01-29 18:33:00,
2013-01-29 13:35:00,50.4,49.3,29.67,SSW,208,5.0,-999.0,96,0.00,,,0.38,Wunderground v.1.15,2013-01-29 18:35:00,
2013-01-29 13:37:00,51.0,49.9,29.67,SSW,206,1.0,-999.0,96,0.00,,,0.38,Wunderground v.1.15,2013-01-29 18:37:00,
2013-01-29 13:38:00,51.0,49.9,29.67,SSW,206,0.0,-999.0,96,0.00,,,0.38,Wunderground v.1.15,2013-01-29 18:38:00,
2013-01-29 13:40:00,51.3,50.2,29.67,SSW,210,2.0,-999.0,96,0.00,,,0.38,Wunderground v.1.15,2013-01-29 18:40:00,
2013-01-29 13:43:00,51.6,50.5,29.67,SSW,195,11.0,-999.0,96,0.00,,,0.38,Wunderground v.1.15,2013-01-29 18:43:00,
2013-01-29 13:45:00,51.7,50.6,29.66,SSW,206,2.0,-999.0,96,0.00,,,0.38,Wunderground v.1.15,2013-01-29 18:45:00,
2013-01-29 13:48:00,52.0,50.9,29.66,SSW,202,2.0,-999.0,96,0.00,,,0.38,Wunderground v.1.15,2013-01-29 18:48:00,
2013-01-29 13:49:00,52.0,50.9,29.66,SSW,202,2.0,-999.0,96,0.00,,,0.38,Wunderground v.1.15,2013-01-29 18:49:00,
2013-01-29 13:50:00,52.0,50.9,29.66,South,186,1.0,-999.0,96,0.00,,,0.38,Wunderground v.1.15,2013-01-29 18:50:00,
2013-01-29 13:54:00,52.3,51.2,29.66,SW,226,2.0,-999.0,96,0.00,,,0.38,Wunderground v.1.15,2013-01-29 18:54:00,
2013-01-29 13:55:00,52.5,51.4,29.66,South,191,7.0,-999.0,96,0.00,,,0.38,Wunderground v.1.15,2013-01-29 18:55:00,
2013-01-29 13:56:00,52.5,51.4,29.66,South,179,7.0,-999.0,96,0.00,,,0.38,Wunderground v.1.15,2013-01-29 18:56:00,
2013-01-29 13:59:00,52.6,51.5,29.66,SSW,198,5.0,-999.0,96,0.00,,,0.38,Wunderground v.1.15,2013-01-29 18:59:00,
2013-01-29 14:00:00,52.8,51.7,29.66,South,174,6.0,-999.0,96,0.00,,,0.38,Wunderground v.1.15,2013-01-29 19:00:00,
2013-01-29 14:02:00,52.8,51.7,29.66,SSW,192,7.0,-999.0,96,0.00,,,0.38,Wunderground v.1.15,2013-01-29 19:02:00,
2013-01-29 14:04:00,52.9,51.8,29.66,SW,226,3.0,-999.0,96,0.00,,,0.38,Wunderground v.1.15,2013-01-29 19:04:00,
2013-01-29 14:06:00,52.9,51.8,29.66,SSW,192,8.0,-999.0,96,0.00,,,0.38,Wunderground v.1.15,2013-01-29 19:06:00,
2013-01-29 14:07:00,53.1,52.0,29.66,SSW,196,1.0,-999.0,96,0.00,,,0.38,Wunderground v.1.15,2013-01-29 19:07:00,
2013-01-29 14:09:00,53.1,52.0,29.66,SW,229,2.0,-999.0,96,0.00,,,0.38,Wunderground v.1.15,2013-01-29 19:09:00,
2013-01-29 14:10:00,53.2,52.1,29.66,South,181,5.0,-999.0,96,0.00,,,0.38,Wunderground v.1.15,2013-01-29 19:10:00,
2013-01-29 14:11:00,53.2,52.1,29.66,SSW,196,1.0,-999.0,96,0.00,,,0.38,Wunderground v.1.15,2013-01-29 19:11:00,
2013-01-29 14:12:00,53.2,52.1,29.66,WSW,251,2.0,-999.0,96,0.00,,,0.38,Wunderground v.1.15,2013-01-29 19:12:00,
2013-01-29 14:15:00,53.2,52.1,29.66,South,178,3.0,-999.0,96,0.00,,,0.38,Wunderground v.1.15,2013-01-29 19:15:00,
2013-01-29 14:17:00,53.3,52.2,29.66,SW,226,2.0,-999.0,96,0.00,,,0.38,Wunderground v.1.15,2013-01-29 19:17:00,
2013-01-29 14:20:00,53.3,52.2,29.66,South,191,2.0,-999.0,96,0.00,,,0.38,Wunderground v.1.15,2013-01-29 19:20:00,
2013-01-29 14:21:00,53.3,52.2,29.66,SW,226,5.0,-999.0,96,0.00,,,0.38,Wunderground v.1.15,2013-01-29 19:21:00,
2013-01-29 14:22:00,53.5,52.4,29.66,SSW,209,13.0,-999.0,96,0.00,,,0.38,Wunderground v.1.15,2013-01-29 19:22:00,
2013-01-29 14:23:00,53.5,52.4,29.66,SSW,209,13.0,-999.0,96,0.00,,,0.38,Wunderground v.1.15,2013-01-29 19:23:00,
2013-01-29 14:26:00,53.5,52.4,29.66,SSW,192,8.0,-999.0,96,0.00,,,0.38,Wunderground v.1.15,2013-01-29 19:26:00,
2013-01-29 14:27:00,53.6,52.2,29.66,SSW,195,12.0,-999.0,95,0.00,,,0.38,Wunderground v.1.15,2013-01-29 19:27:00,
2013-01-29 14:28:00,53.8,52.4,29.66,WSW,254,9.0,-999.0,95,0.00,,,0.38,Wunderground v.1.15,2013-01-29 19:28:00,
2013-01-29 14:31:00,53.8,52.4,29.65,SSW,202,3.0,-999.0,95,0.00,,,0.38,Wunderground v.1.15,2013-01-29 19:31:00,
2013-01-29 14:32:00,53.8,52.4,29.65,South,184,4.0,-999.0,95,0.00,,,0.38,Wunderground v.1.15,2013-01-29 19:32:00,
2013-01-29 14:33:00,53.8,52.4,29.65,SSW,203,8.0,-999.0,95,0.00,,,0.38,Wunderground v.1.15,2013-01-29 19:33:00,
2013-01-29 14:37:00,53.8,52.4,29.65,SW,232,7.0,-999.0,95,0.00,,,0.38,Wunderground v.1.15,2013-01-29 19:37:00,
2013-01-29 14:39:00,53.9,52.5,29.65,SW,217,6.0,-999.0,95,0.00,,,0.38,Wunderground v.1.15,2013-01-29 19:39:00,
2013-01-29 14:42:00,53.9,52.5,29.65,South,181,7.0,-999.0,95,0.00,,,0.38,Wunderground v.1.15,2013-01-29 19:42:00,
2013-01-29 14:44:00,53.9,52.5,29.65,WSW,239,5.0,-999.0,95,0.00,,,0.38,Wunderground v.1.15,2013-01-29 19:44:00,
2013-01-29 14:45:00,53.9,52.5,29.65,WSW,239,5.0,-999.0,95,0.00,,,0.38,Wunderground v.1.15,2013-01-29 19:45:00,
2013-01-29 14:47:00,54.1,52.7,29.64,SW,219,5.0,-999.0,95,0.00,,,0.38,Wunderground v.1.15,2013-01-29 19:47:00,
2013-01-29 14:48:00,54.1,52.7,29.64,SW,219,5.0,-999.0,95,0.00,,,0.38,Wunderground v.1.15,2013-01-29 19:48:00,
2013-01-29 14:49:00,54.2,52.8,29.64,SSW,195,1.0,-999.0,95,0.00,,,0.38,Wunderground v.1.15,2013-01-29 19:49:00,
2013-01-29 14:50:00,54.2,52.8,29.64,South,169,2.0,-999.0,95,0.00,,,0.38,Wunderground v.1.15,2013-01-29 19:50:00,
2013-01-29 14:53:00,54.2,52.8,29.64,SSE,151,11.0,-999.0,95,0.00,,,0.38,Wunderground v.1.15,2013-01-29 19:53:00,
2013-01-29 14:55:00,54.4,53.0,29.64,South,185,8.0,-999.0,95,0.00,,,0.38,Wunderground v.1.15,2013-01-29 19:55:00,
2013-01-29 14:58:00,54.4,53.0,29.64,SSW,206,3.0,-999.0,95,0.00,,,0.38,Wunderground v.1.15,2013-01-29 19:58:00,
2013-01-29 15:00:00,54.5,53.1,29.63,SSW,192,6.0,-999.0,95,0.00,,,0.38,Wunderground v.1.15,2013-01-29 20:00:00,
2013-01-29 15:01:00,54.5,53.1,29.63,SSW,195,3.0,-999.0,95,0.00,,,0.38,Wunderground v.1.15,2013-01-29 20:01:00,
2013-01-29 15:03:00,54.5,53.1,29.63,SW,233,7.0,-999.0,95,0.00,,,0.38,Wunderground v.1.15,2013-01-29 20:03:00,
2013-01-29 15:04:00,54.5,53.1,29.63,South,176,5.0,-999.0,95,0.00,,,0.38,Wunderground v.1.15,2013-01-29 20:04:00,
2013-01-29 15:06:00,54.5,53.1,29.63,SSW,208,1.0,-999.0,95,0.00,,,0.38,Wunderground v.1.15,2013-01-29 20:06:00,
2013-01-29 15:08:00,54.5,53.1,29.63,SSW,199,8.0,-999.0,95,0.00,,,0.38,Wunderground v.1.15,2013-01-29 20:08:00,
2013-01-29 15:09:00,54.5,53.1,29.63,SSW,213,7.0,-999.0,95,0.00,,,0.38,Wunderground v.1.15,2013-01-29 20:09:00,
2013-01-29 15:11:00,54.5,53.1,29.63,SW,227,3.0,-999.0,95,0.00,,,0.38,Wunderground v.1.15,2013-01-29 20:11:00,
2013-01-29 15:12:00,54.7,53.3,29.63,SW,230,7.0,-999.0,95,0.00,,,0.38,Wunderground v.1.15,2013-01-29 20:12:00,
2013-01-29 15:14:00,54.7,53.3,29.63,SSW,200,7.0,-999.0,95,0.00,,,0.38,Wunderground v.1.15,2013-01-29 20:14:00,
2013-01-29 15:15:00,54.7,53.3,29.63,SSW,200,7.0,-999.0,95,0.00,,,0.38,Wunderground v.1.15,2013-01-29 20:15:00,
2013-01-29 15:16:00,54.7,53.3,29.64,SW,220,0.0,-999.0,95,0.00,,,0.38,Wunderground v.1.15,2013-01-29 20:16:00,
2013-01-29 15:17:00,54.7,53.3,29.64,South,188,6.0,-999.0,95,0.00,,,0.38,Wunderground v.1.15,2013-01-29 20:17:00,
2013-01-29 15:19:00,54.7,53.3,29.64,SW,234,3.0,-999.0,95,0.00,,,0.38,Wunderground v.1.15,2013-01-29 20:19:00,
2013-01-29 15:20:00,54.8,53.4,29.64,SW,215,3.0,-999.0,95,0.00,,,0.38,Wunderground v.1.15,2013-01-29 20:20:00,
2013-01-29 15:21:00,54.8,53.4,29.64,SSW,203,3.0,-999.0,95,0.00,,,0.38,Wunderground v.1.15,2013-01-29 20:21:00,
2013-01-29 15:22:00,54.7,53.3,29.64,SSW,196,2.0,-999.0,95,0.00,,,0.38,Wunderground v.1.15,2013-01-29 20:22:00,
2013-01-29 15:25:00,54.7,53.3,29.64,SSW,208,4.0,-999.0,95,0.00,,,0.38,Wunderground v.1.15,2013-01-29 20:25:00,
2013-01-29 15:27:00,54.7,53.3,29.64,SSW,213,10.0,-999.0,95,0.00,,,0.38,Wunderground v.1.15,2013-01-29 20:27:00,
2013-01-29 15:28:00,54.7,53.3,29.64,SSW,198,7.0,-999.0,95,0.00,,,0.38,Wunderground v.1.15,2013-01-29 20:28:00,
2013-01-29 15:30:00,54.8,53.4,29.64,SW,236,3.0,-999.0,95,0.00,,,0.38,Wunderground v.1.15,2013-01-29 20:30:00,
2013-01-29 15:31:00,54.8,53.4,29.64,South,182,5.0,-999.0,95,0.00,,,0.38,Wunderground v.1.15,2013-01-29 20:31:00,
2013-01-29 15:32:00,54.8,53.4,29.64,WSW,246,2.0,-999.0,95,0.00,,,0.38,Wunderground v.1.15,2013-01-29 20:32:00,
2013-01-29 15:33:00,54.8,53.4,29.64,SW,216,1.0,-999.0,95,0.00,,,0.38,Wunderground v.1.15,2013-01-29 20:33:00,
2013-01-29 15:35:00,54.7,53.3,29.64,South,172,3.0,-999.0,95,0.00,,,0.38,Wunderground v.1.15,2013-01-29 20:35:00,
2013-01-29 15:36:00,54.7,53.3,29.64,South,185,7.0,-999.0,95,0.00,,,0.38,Wunderground v.1.15,2013-01-29 20:36:00,
2013-01-29 15:37:00,54.8,53.4,29.64,SSW,209,0.0,-999.0,95,0.00,,,0.38,Wunderground v.1.15,2013-01-29 20:37:00,
2013-01-29 15:38:00,54.8,53.4,29.64,South,178,5.0,-999.0,95,0.00,,,0.38,Wunderground v.1.15,2013-01-29 20:38:00,
2013-01-29 15:40:00,54.8,53.4,29.64,West,263,3.0,-999.0,95,0.00,,,0.38,Wunderground v.1.15,2013-01-29 20:40:00,
2013-01-29 15:41:00,54.8,53.4,29.64,SW,227,0.0,-999.0,95,0.00,,,0.38,Wunderground v.1.15,2013-01-29 20:41:00,
2013-01-29 15:43:00,54.8,53.4,29.64,South,182,5.0,-999.0,95,0.00,,,0.38,Wunderground v.1.15,2013-01-29 20:43:00,
2013-01-29 15:45:00,54.8,53.4,29.64,SW,223,3.0,-999.0,95,0.00,,,0.38,Wunderground v.1.15,2013-01-29 20:45:00,
2013-01-29 15:46:00,54.8,53.4,29.64,SSW,210,4.0,-999.0,95,0.00,,,0.38,Wunderground v.1.15,2013-01-29 20:46:00,
2013-01-29 15:48:00,55.0,53.6,29.64,South,188,5.0,-999.0,95,0.00,,,0.38,Wunderground v.1.15,2013-01-29 20:48:00,
2013-01-29 15:49:00,55.0,53.6,29.64,South,191,3.0,-999.0,95,0.00,,,0.38,Wunderground v.1.15,2013-01-29 20:49:00,
2013-01-29 15:50:00,55.0,53.6,29.64,South,185,2.0,-999.0,95,0.00,,,0.38,Wunderground v.1.15,2013-01-29 20:50:00,
2013-01-29 15:51:00,55.0,53.6,29.64,West,280,5.0,-999.0,95,0.00,,,0.38,Wunderground v.1.15,2013-01-29 20:51:00,
2013-01-29 15:54:00,55.0,53.6,29.64,South,182,2.0,-999.0,95,0.00,,,0.38,Wunderground v.1.15,2013-01-29 20:54:00,
2013-01-29 15:55:00,55.0,53.6,29.64,South,176,3.0,-999.0,95,0.00,,,0.38,Wunderground v.1.15,2013-01-29 20:55:00,
2013-01-29 15:56:00,55.0,53.6,29.64,South,186,9.0,-999.0,95,0.00,,,0.38,Wunderground v.1.15,2013-01-29 20:56:00,
2013-01-29 15:59:00,55.1,53.7,29.64,WSW,257,2.0,-999.0,95,0.00,,,0.38,Wunderground v.1.15,2013-01-29 20:59:00,
2013-01-29 16:00:00,55.1,53.7,29.63,SW,232,2.0,-999.0,95,0.00,,,0.38,Wunderground v.1.15,2013-01-29 21:00:00,
2013-01-29 16:01:00,55.1,53.7,29.63,SSW,195,3.0,-999.0,95,0.00,,,0.38,Wunderground v.1.15,2013-01-29 21:01:00,
2013-01-29 16:02:00,55.1,53.7,29.63,SSW,203,3.0,-999.0,95,0.00,,,0.38,Wunderground v.1.15,2013-01-29 21:02:00,
2013-01-29 16:05:00,55.1,53.4,29.63,SW,226,2.0,-999.0,94,0.00,,,0.38,Wunderground v.1.15,2013-01-29 21:05:00,
2013-01-29 16:06:00,55.1,53.4,29.63,WSW,256,3.0,-999.0,94,0.00,,,0.38,Wunderground v.1.15,2013-01-29 21:06:00,
2013-01-29 16:07:00,55.3,53.6,29.63,SW,233,7.0,-999.0,94,0.00,,,0.38,Wunderground v.1.15,2013-01-29 21:07:00,
2013-01-29 16:10:00,55.3,53.6,29.63,SSW,199,12.0,-999.0,94,0.00,,,0.38,Wunderground v.1.15,2013-01-29 21:10:00,
2013-01-29 16:11:00,55.3,53.6,29.63,WSW,244,3.0,-999.0,94,0.00,,,0.38,Wunderground v.1.15,2013-01-29 21:11:00,
2013-01-29 16:14:00,55.3,53.6,29.63,South,175,1.0,-999.0,94,0.00,,,0.38,Wunderground v.1.15,2013-01-29 21:14:00,
2013-01-29 16:15:00,55.3,53.6,29.64,South,188,2.0,-999.0,94,0.00,,,0.38,Wunderground v.1.15,2013-01-29 21:15:00,
2013-01-29 16:16:00,55.3,53.6,29.64,South,188,2.0,-999.0,94,0.00,,,0.38,Wunderground v.1.15,2013-01-29 21:16:00,
2013-01-29 16:18:00,55.1,53.4,29.64,SSW,208,3.0,-999.0,94,0.00,,,0.38,Wunderground v.1.15,2013-01-29 21:18:00,
2013-01-29 16:20:00,55.1,53.4,29.64,WSW,247,3.0,-999.0,94,0.00,,,0.38,Wunderground v.1.15,2013-01-29 21:20:00,
2013-01-29 16:21:00,55.1,53.4,29.64,SSW,200,2.0,-999.0,94,0.00,,,0.38,Wunderground v.1.15,2013-01-29 21:21:00,
2013-01-29 16:23:00,55.1,53.4,29.64,WSW,244,5.0,-999.0,94,0.00,,,0.38,Wunderground v.1.15,2013-01-29 21:23:00,
2013-01-29 16:25:00,55.1,53.4,29.64,SSW,213,1.0,-999.0,94,0.00,,,0.38,Wunderground v.1.15,2013-01-29 21:25:00,
2013-01-29 16:26:00,55.1,53.4,29.64,South,182,6.0,-999.0,94,0.00,,,0.38,Wunderground v.1.15,2013-01-29 21:26:00,
2013-01-29 16:28:00,55.1,53.4,29.64,South,181,6.0,-999.0,94,0.00,,,0.39,Wunderground v.1.15,2013-01-29 21:28:00,
2013-01-29 16:30:00,55.1,53.4,29.64,SSE,168,4.0,-999.0,94,0.46,,,0.41,Wunderground v.1.15,2013-01-29 21:30:00,
2013-01-29 16:31:00,55.1,53.4,29.64,SSW,212,3.0,-999.0,94,0.37,,,0.41,Wunderground v.1.15,2013-01-29 21:31:00,
2013-01-29 16:32:00,55.1,53.4,29.64,SW,233,1.0,-999.0,94,0.37,,,0.41,Wunderground v.1.15,2013-01-29 21:32:00,
2013-01-29 16:34:00,55.1,53.4,29.64,SSW,195,2.0,-999.0,94,0.25,,,0.42,Wunderground v.1.15,2013-01-29 21:34:00,
2013-01-29 16:36:00,55.3,53.6,29.64,SW,219,2.0,-999.0,94,0.14,,,0.42,Wunderground v.1.15,2013-01-29 21:36:00,
2013-01-29 16:37:00,55.3,53.6,29.64,South,189,1.0,-999.0,94,0.10,,,0.42,Wunderground v.1.15,2013-01-29 21:37:00,
2013-01-29 16:39:00,55.3,53.6,29.64,SW,224,7.0,-999.0,94,0.08,,,0.42,Wunderground v.1.15,2013-01-29 21:39:00,
2013-01-29 16:41:00,55.3,53.6,29.64,South,191,8.0,-999.0,94,0.06,,,0.42,Wunderground v.1.15,2013-01-29 21:41:00,
2013-01-29 16:42:00,55.3,53.6,29.64,South,185,5.0,-999.0,94,0.06,,,0.42,Wunderground v.1.15,2013-01-29 21:42:00,
2013-01-29 16:44:00,55.3,53.6,29.64,South,182,0.0,-999.0,94,0.05,,,0.42,Wunderground v.1.15,2013-01-29 21:44:00,
2013-01-29 16:47:00,55.3,53.6,29.63,South,182,2.0,-999.0,94,0.04,,,0.42,Wunderground v.1.15,2013-01-29 21:47:00,
2013-01-29 16:49:00,55.3,53.6,29.63,South,188,2.0,-999.0,94,0.44,,,0.44,Wunderground v.1.15,2013-01-29 21:49:00,
2013-01-29 16:52:00,55.3,53.6,29.63,SW,217,2.0,-999.0,94,0.19,,,0.44,Wunderground v.1.15,2013-01-29 21:52:00,
2013-01-29 16:53:00,55.3,53.6,29.63,South,172,5.0,-999.0,94,0.17,,,0.44,Wunderground v.1.15,2013-01-29 21:53:00,
2013-01-29 16:54:00,55.1,53.4,29.63,SSW,198,4.0,-999.0,94,0.17,,,0.45,Wunderground v.1.15,2013-01-29 21:54:00,
2013-01-29 16:56:00,55.1,53.4,29.63,South,176,1.0,-999.0,94,0.17,,,0.45,Wunderground v.1.15,2013-01-29 21:56:00,
2013-01-29 16:57:00,55.3,53.6,29.63,South,175,1.0,-999.0,94,0.17,,,0.46,Wunderground v.1.15,2013-01-29 21:57:00,
2013-01-29 16:59:00,55.3,53.6,29.63,South,178,5.0,-999.0,94,0.16,,,0.46,Wunderground v.1.15,2013-01-29 21:59:00,
2013-01-29 17:00:00,55.3,53.6,29.63,SSE,165,2.0,-999.0,94,0.16,,,0.46,Wunderground v.1.15,2013-01-29 22:00:00,
2013-01-29 17:02:00,55.1,53.4,29.63,South,179,3.0,-999.0,94,0.10,,,0.46,Wunderground v.1.15,2013-01-29 22:02:00,
2013-01-29 17:05:00,55.1,53.4,29.63,South,179,2.0,-999.0,94,0.09,,,0.47,Wunderground v.1.15,2013-01-29 22:05:00,
2013-01-29 17:07:00,55.1,53.4,29.63,South,182,1.0,-999.0,94,0.17,,,0.47,Wunderground v.1.15,2013-01-29 22:07:00,
2013-01-29 17:09:00,55.1,53.4,29.63,South,176,5.0,-999.0,94,0.17,,,0.48,Wunderground v.1.15,2013-01-29 22:09:00,
2013-01-29 17:10:00,55.1,53.4,29.63,South,175,1.0,-999.0,94,0.14,,,0.48,Wunderground v.1.15,2013-01-29 22:10:00,
2013-01-29 17:12:00,55.1,53.4,29.63,South,191,1.0,-999.0,94,0.10,,,0.48,Wunderground v.1.15,2013-01-29 22:12:00,
2013-01-29 17:14:00,55.1,53.4,29.63,SSW,193,2.0,-999.0,94,0.10,,,0.49,Wunderground v.1.15,2013-01-29 22:14:00,
2013-01-29 17:15:00,55.1,53.4,29.64,SW,217,1.0,-999.0,94,0.22,,,0.50,Wunderground v.1.15,2013-01-29 22:15:00,
2013-01-29 17:17:00,55.1,53.4,29.64,South,189,5.0,-999.0,94,0.26,,,0.51,Wunderground v.1.15,2013-01-29 22:17:00,
2013-01-29 17:18:00,55.1,53.4,29.64,SSW,192,3.0,-999.0,94,0.46,,,0.51,Wunderground v.1.15,2013-01-29 22:18:00,
2013-01-29 17:20:00,55.1,53.4,29.64,South,186,0.0,-999.0,94,0.35,,,0.52,Wunderground v.1.15,2013-01-29 22:20:00,
2013-01-29 17:23:00,55.0,53.3,29.64,SSW,196,1.0,-999.0,94,0.16,,,0.53,Wunderground v.1.15,2013-01-29 22:23:00,
2013-01-29 17:24:00,55.0,53.3,29.64,SSW,209,3.0,-999.0,94,0.14,,,0.53,Wunderground v.1.15,2013-01-29 22:24:00,
2013-01-29 17:25:00,55.1,53.4,29.64,SSW,202,1.0,-999.0,94,0.12,,,0.54,Wunderground v.1.15,2013-01-29 22:25:00,
2013-01-29 17:28:00,55.0,53.3,29.64,SW,226,3.0,-999.0,94,0.12,,,0.54,Wunderground v.1.15,2013-01-29 22:28:00,
2013-01-29 17:29:00,55.0,53.3,29.64,SSW,212,1.0,-999.0,94,0.12,,,0.54,Wunderground v.1.15,2013-01-29 22:29:00,
2013-01-29 17:30:00,55.0,53.3,29.64,SSW,192,2.0,-999.0,94,0.10,,,0.54,Wunderground v.1.15,2013-01-29 22:30:00,
2013-01-29 17:33:00,55.0,53.3,29.64,South,189,2.0,-999.0,94,0.07,,,0.54,Wunderground v.1.15,2013-01-29 22:33:00,
2013-01-29 17:35:00,55.0,53.3,29.64,South,188,2.0,-999.0,94,0.06,,,0.54,Wunderground v.1.15,2013-01-29 22:35:00,
2013-01-29 17:36:00,55.0,53.3,29.64,South,188,1.0,-999.0,94,0.06,,,0.55,Wunderground v.1.15,2013-01-29 22:36:00,
2013-01-29 17:39:00,54.8,53.1,29.64,South,189,0.0,-999.0,94,0.06,,,0.55,Wunderground v.1.15,2013-01-29 22:39:00,
2013-01-29 17:41:00,54.7,53.0,29.64,South,189,0.0,-999.0,94,0.06,,,0.55,Wunderground v.1.15,2013-01-29 22:41:00,
2013-01-29 17:42:00,54.7,53.0,29.64,South,189,0.0,-999.0,94,0.06,,,0.55,Wunderground v.1.15,2013-01-29 22:42:00,
2013-01-29 17:44:00,54.7,53.0,29.64,South,189,2.0,-999.0,94,0.06,,,0.55,Wunderground v.1.15,2013-01-29 22:44:00,
2013-01-29 17:46:00,54.7,53.0,29.63,South,189,1.0,-999.0,94,0.06,,,0.55,Wunderground v.1.15,2013-01-29 22:46:00,
2013-01-29 17:47:00,54.5,52.8,29.63,South,189,1.0,-999.0,94,0.05,,,0.55,Wunderground v.1.15,2013-01-29 22:47:00,
2013-01-29 17:49:00,54.7,53.0,29.63,South,186,3.0,-999.0,94,0.04,,,0.55,Wunderground v.1.15,2013-01-29 22:49:00,
2013-01-29 17:52:00,54.8,53.1,29.63,South,182,2.0,-999.0,94,0.00,,,0.55,Wunderground v.1.15,2013-01-29 22:52:00,
2013-01-29 17:54:00,54.7,53.0,29.63,South,179,4.0,-999.0,94,0.00,,,0.55,Wunderground v.1.15,2013-01-29 22:54:00,
2013-01-29 17:57:00,55.0,53.3,29.63,South,176,3.0,-999.0,94,0.00,,,0.55,Wunderground v.1.15,2013-01-29 22:57:00,
2013-01-29 17:58:00,54.8,53.1,29.63,South,175,2.0,-999.0,94,0.00,,,0.55,Wunderground v.1.15,2013-01-29 22:58:00,
2013-01-29 18:01:00,54.8,53.1,29.63,South,191,1.0,-999.0,94,0.00,,,0.55,Wunderground v.1.15,2013-01-29 23:01:00,
2013-01-29 18:03:00,54.8,53.1,29.63,SSW,206,5.0,-999.0,94,0.00,,,0.55,Wunderground v.1.15,2013-01-29 23:03:00,
2013-01-29 18:06:00,55.0,53.3,29.63,South,175,3.0,-999.0,94,0.00,,,0.55,Wunderground v.1.15,2013-01-29 23:06:00,
2013-01-29 18:08:00,55.0,53.3,29.63,SSE,162,2.0,-999.0,94,0.00,,,0.55,Wunderground v.1.15,2013-01-29 23:08:00,
2013-01-29 18:09:00,55.0,53.3,29.63,SSE,162,2.0,-999.0,94,0.00,,,0.55,Wunderground v.1.15,2013-01-29 23:09:00,
2013-01-29 18:11:00,54.8,53.1,29.63,South,176,3.0,-999.0,94,0.00,,,0.55,Wunderground v.1.15,2013-01-29 23:11:00,
2013-01-29 18:14:00,54.8,53.1,29.63,South,178,1.0,-999.0,94,0.00,,,0.55,Wunderground v.1.15,2013-01-29 23:14:00,
2013-01-29 18:16:00,54.8,53.1,29.62,South,181,3.0,-999.0,94,0.00,,,0.55,Wunderground v.1.15,2013-01-29 23:16:00,
2013-01-29 18:19:00,54.8,53.1,29.62,SSW,199,0.0,-999.0,94,0.00,,,0.55,Wunderground v.1.15,2013-01-29 23:19:00,
2013-01-29 18:20:00,54.8,53.1,29.62,South,176,3.0,-999.0,94,0.00,,,0.55,Wunderground v.1.15,2013-01-29 23:20:00,
2013-01-29 18:21:00,54.8,53.1,29.62,South,181,1.0,-999.0,94,0.00,,,0.55,Wunderground v.1.15,2013-01-29 23:21:00,
2013-01-29 18:24:00,54.8,53.1,29.62,South,181,3.0,-999.0,94,0.00,,,0.55,Wunderground v.1.15,2013-01-29 23:24:00,
2013-01-29 18:25:00,54.7,53.0,29.62,South,181,2.0,-999.0,94,0.00,,,0.55,Wunderground v.1.15,2013-01-29 23:25:00,
2013-01-29 18:27:00,54.7,53.0,29.62,SSW,195,0.0,-999.0,94,0.00,,,0.55,Wunderground v.1.15,2013-01-29 23:27:00,
2013-01-29 18:30:00,54.7,53.0,29.62,South,186,2.0,-999.0,94,0.00,,,0.55,Wunderground v.1.15,2013-01-29 23:30:00,
2013-01-29 18:32:00,54.7,53.0,29.61,SSW,192,1.0,-999.0,94,0.00,,,0.55,Wunderground v.1.15,2013-01-29 23:32:00,
2013-01-29 18:35:00,54.7,53.0,29.61,South,176,1.0,-999.0,94,0.00,,,0.55,Wunderground v.1.15,2013-01-29 23:35:00,
2013-01-29 18:36:00,54.7,53.0,29.61,South,176,0.0,-999.0,94,0.00,,,0.55,Wunderground v.1.15,2013-01-29 23:36:00,
2013-01-29 18:37:00,54.7,53.0,29.61,SSW,196,2.0,-999.0,94,0.00,,,0.55,Wunderground v.1.15,2013-01-29 23:37:00,
2013-01-29 18:41:00,54.7,53.0,29.61,SSW,195,3.0,-999.0,94,0.00,,,0.55,Wunderground v.1.15,2013-01-29 23:41:00,
2013-01-29 18:43:00,54.7,53.0,29.61,South,186,0.0,-999.0,94,0.00,,,0.55,Wunderground v.1.15,2013-01-29 23:43:00,
2013-01-29 18:46:00,54.5,52.8,29.61,South,182,3.0,-999.0,94,0.00,,,0.55,Wunderground v.1.15,2013-01-29 23:46:00,
2013-01-29 18:48:00,54.5,52.8,29.61,South,182,1.0,-999.0,94,0.00,,,0.55,Wunderground v.1.15,2013-01-29 23:48:00,
2013-01-29 18:51:00,54.5,52.8,29.61,South,178,1.0,-999.0,94,0.00,,,0.55,Wunderground v.1.15,2013-01-29 23:51:00,
2013-01-29 18:53:00,54.5,52.8,29.61,South,185,0.0,-999.0,94,0.00,,,0.55,Wunderground v.1.15,2013-01-29 23:53:00,
2013-01-29 18:54:00,54.5,52.8,29.61,South,181,4.0,-999.0,94,0.00,,,0.55,Wunderground v.1.15,2013-01-29 23:54:00,
2013-01-29 18:57:00,54.5,52.8,29.61,SSW,195,1.0,-999.0,94,0.00,,,0.55,Wunderground v.1.15,2013-01-29 23:57:00,
2013-01-29 18:59:00,54.5,52.8,29.61,SSW,196,0.0,-999.0,94,0.00,,,0.55,Wunderground v.1.15,2013-01-29 23:59:00,
2013-01-29 19:01:00,54.5,52.8,29.60,SSW,196,0.0,-999.0,94,0.00,,,0.55,Wunderground v.1.15,2013-01-30 00:01:00,
2013-01-29 19:02:00,54.4,52.7,29.60,SSW,196,1.0,-999.0,94,0.00,,,0.55,Wunderground v.1.15,2013-01-30 00:02:00,
2013-01-29 19:03:00,54.4,52.7,29.60,SSW,196,0.0,-999.0,94,0.00,,,0.55,Wunderground v.1.15,2013-01-30 00:03:00,
2013-01-29 19:04:00,54.4,52.7,29.60,SSW,212,2.0,-999.0,94,0.00,,,0.55,Wunderground v.1.15,2013-01-30 00:04:00,
2013-01-29 19:06:00,54.4,52.7,29.60,South,172,2.0,-999.0,94,0.00,,,0.55,Wunderground v.1.15,2013-01-30 00:06:00,
2013-01-29 19:07:00,54.2,52.5,29.60,South,172,0.0,-999.0,94,0.00,,,0.55,Wunderground v.1.15,2013-01-30 00:07:00,
2013-01-29 19:08:00,54.2,52.5,29.60,South,181,0.0,-999.0,94,0.00,,,0.56,Wunderground v.1.15,2013-01-30 00:08:00,
2013-01-29 19:09:00,54.2,52.5,29.60,South,181,0.0,-999.0,94,0.00,,,0.56,Wunderground v.1.15,2013-01-30 00:09:00,
2013-01-29 19:12:00,54.1,52.4,29.60,SSW,199,1.0,-999.0,94,0.00,,,0.56,Wunderground v.1.15,2013-01-30 00:12:00,
2013-01-29 19:13:00,54.1,52.4,29.60,SW,226,3.0,-999.0,94,0.00,,,0.56,Wunderground v.1.15,2013-01-30 00:13:00,
2013-01-29 19:14:00,54.1,52.4,29.60,SSW,193,1.0,-999.0,94,0.00,,,0.56,Wunderground v.1.15,2013-01-30 00:14:00,
2013-01-29 19:17:00,54.1,52.4,29.60,South,189,3.0,-999.0,94,0.00,,,0.56,Wunderground v.1.15,2013-01-30 00:17:00,
2013-01-29 19:19:00,54.1,52.4,29.60,SSE,167,3.0,-999.0,94,0.00,,,0.56,Wunderground v.1.15,2013-01-30 00:19:00,
2013-01-29 19:20:00,54.1,52.4,29.60,South,169,1.0,-999.0,94,0.00,,,0.56,Wunderground v.1.15,2013-01-30 00:20:00,
2013-01-29 19:23:00,54.1,52.4,29.60,South,176,1.0,-999.0,94,0.04,,,0.56,Wunderground v.1.15,2013-01-30 00:23:00,
2013-01-29 19:24:00,54.1,52.7,29.60,SW,219,0.0,-999.0,95,0.04,,,0.57,Wunderground v.1.15,2013-01-30 00:24:00,
2013-01-29 19:25:00,54.1,52.7,29.60,South,176,5.0,-999.0,95,0.04,,,0.57,Wunderground v.1.15,2013-01-30 00:25:00,
2013-01-29 19:28:00,54.1,52.7,29.60,SSE,168,1.0,-999.0,95,0.13,,,0.58,Wunderground v.1.15,2013-01-30 00:28:00,
2013-01-29 19:29:00,54.1,52.7,29.60,South,191,3.0,-999.0,95,0.13,,,0.58,Wunderground v.1.15,2013-01-30 00:29:00,
2013-01-29 19:30:00,54.1,52.7,29.60,SSW,206,3.0,-999.0,95,0.13,,,0.58,Wunderground v.1.15,2013-01-30 00:30:00,
2013-01-29 19:33:00,54.1,52.7,29.60,South,182,0.0,-999.0,95,0.09,,,0.58,Wunderground v.1.15,2013-01-30 00:33:00,
2013-01-29 19:35:00,54.1,52.7,29.60,SSW,205,1.0,-999.0,95,0.07,,,0.58,Wunderground v.1.15,2013-01-30 00:35:00,
2013-01-29 19:36:00,54.1,52.7,29.60,SSW,205,1.0,-999.0,95,0.07,,,0.58,Wunderground v.1.15,2013-01-30 00:36:00,
2013-01-29 19:39:00,54.1,52.4,29.60,SSE,165,1.0,-999.0,94,0.05,,,0.58,Wunderground v.1.15,2013-01-30 00:39:00,
2013-01-29 19:40:00,54.1,52.7,29.60,SSE,165,2.0,-999.0,95,0.04,,,0.58,Wunderground v.1.15,2013-01-30 00:40:00,
2013-01-29 19:41:00,53.9,52.5,29.60,South,184,2.0,-999.0,95,0.04,,,0.58,Wunderground v.1.15,2013-01-30 00:41:00,
2013-01-29 19:45:00,53.9,52.2,29.60,SSW,196,0.0,-999.0,94,0.04,,,0.59,Wunderground v.1.15,2013-01-30 00:45:00,
2013-01-29 19:46:00,53.9,52.2,29.60,South,186,3.0,-999.0,94,0.04,,,0.59,Wunderground v.1.15,2013-01-30 00:46:00,
2013-01-29 19:47:00,53.9,52.5,29.60,South,191,1.0,-999.0,95,0.13,,,0.60,Wunderground v.1.15,2013-01-30 00:47:00,
2013-01-29 19:51:00,53.9,52.5,29.60,South,189,2.0,-999.0,95,0.13,,,0.60,Wunderground v.1.15,2013-01-30 00:51:00,
2013-01-29 19:52:00,53.9,52.5,29.60,South,169,3.0,-999.0,95,0.15,,,0.61,Wunderground v.1.15,2013-01-30 00:52:00,
2013-01-29 19:53:00,54.1,52.7,29.60,South,181,2.0,-999.0,95,0.15,,,0.61,Wunderground v.1.15,2013-01-30 00:53:00,
2013-01-29 19:57:00,53.9,52.5,29.60,SSW,210,0.0,-999.0,95,0.12,,,0.61,Wunderground v.1.15,2013-01-30 00:57:00,
2013-01-29 19:58:00,53.9,52.5,29.60,South,182,6.0,-999.0,95,0.12,,,0.62,Wunderground v.1.15,2013-01-30 00:58:00,
2013-01-29 20:02:00,53.9,52.5,29.58,SSE,157,1.0,-999.0,95,0.11,,,0.62,Wunderground v.1.15,2013-01-30 01:02:00,
2013-01-29 20:03:00,53.9,52.5,29.58,South,184,8.0,-999.0,95,0.11,,,0.62,Wunderground v.1.15,2013-01-30 01:03:00,
2013-01-29 20:08:00,54.1,52.7,29.58,South,181,0.0,-999.0,95,0.19,,,0.65,Wunderground v.1.15,2013-01-30 01:08:00,
2013-01-29 20:09:00,54.1,52.7,29.58,South,181,2.0,-999.0,95,0.19,,,0.65,Wunderground v.1.15,2013-01-30 01:09:00,
2013-01-29 20:13:00,54.1,52.7,29.58,South,178,6.0,-999.0,95,0.15,,,0.66,Wunderground v.1.15,2013-01-30 01:13:00,
2013-01-29 20:15:00,54.1,52.7,29.58,South,189,4.0,-999.0,95,0.14,,,0.66,Wunderground v.1.15,2013-01-30 01:15:00,
2013-01-29 20:18:00,54.1,52.7,29.58,South,178,7.0,-999.0,95,0.08,,,0.66,Wunderground v.1.15,2013-01-30 01:18:00,
2013-01-29 20:19:00,54.1,52.7,29.58,South,178,7.0,-999.0,95,0.08,,,0.66,Wunderground v.1.15,2013-01-30 01:19:00,
2013-01-29 20:20:00,54.1,52.7,29.58,South,188,1.0,-999.0,95,0.07,,,0.66,Wunderground v.1.15,2013-01-30 01:20:00,
2013-01-29 20:23:00,54.1,52.7,29.58,South,179,3.0,-999.0,95,0.07,,,0.67,Wunderground v.1.15,2013-01-30 01:23:00,
2013-01-29 20:24:00,54.1,52.7,29.58,South,181,3.0,-999.0,95,0.07,,,0.67,Wunderground v.1.15,2013-01-30 01:24:00,
2013-01-29 20:25:00,54.1,52.7,29.58,SSW,196,6.0,-999.0,95,0.07,,,0.67,Wunderground v.1.15,2013-01-30 01:25:00,
2013-01-29 20:28:00,54.1,52.7,29.58,South,191,6.0,-999.0,95,0.07,,,0.67,Wunderground v.1.15,2013-01-30 01:28:00,
2013-01-29 20:29:00,54.2,52.8,29.58,South,176,5.0,-999.0,95,0.07,,,0.67,Wunderground v.1.15,2013-01-30 01:29:00,
2013-01-29 20:30:00,54.2,52.8,29.58,South,175,0.0,-999.0,95,0.06,,,0.67,Wunderground v.1.15,2013-01-30 01:30:00,
2013-01-29 20:34:00,54.1,52.7,29.57,SSW,203,5.0,-999.0,95,0.04,,,0.67,Wunderground v.1.15,2013-01-30 01:34:00,
2013-01-29 20:35:00,54.1,52.4,29.57,SE,133,0.0,-999.0,94,0.04,,,0.67,Wunderground v.1.15,2013-01-30 01:35:00,
2013-01-29 20:39:00,54.2,52.5,29.57,South,172,1.0,-999.0,94,0.00,,,0.67,Wunderground v.1.15,2013-01-30 01:39:00,
2013-01-29 20:40:00,54.2,52.5,29.57,SW,222,3.0,-999.0,94,0.00,,,0.67,Wunderground v.1.15,2013-01-30 01:40:00,
2013-01-29 20:41:00,54.1,52.7,29.57,SSW,212,3.0,-999.0,95,0.00,,,0.67,Wunderground v.1.15,2013-01-30 01:41:00,
2013-01-29 20:44:00,54.1,52.4,29.57,South,176,1.0,-999.0,94,0.00,,,0.67,Wunderground v.1.15,2013-01-30 01:44:00,
2013-01-29 20:45:00,54.1,52.4,29.56,South,179,2.0,-999.0,94,0.00,,,0.67,Wunderground v.1.15,2013-01-30 01:45:00,
2013-01-29 20:47:00,54.1,52.4,29.56,SSE,164,4.0,-999.0,94,0.00,,,0.67,Wunderground v.1.15,2013-01-30 01:47:00,
2013-01-29 20:50:00,54.1,52.4,29.56,SSW,209,0.0,-999.0,94,0.00,,,0.67,Wunderground v.1.15,2013-01-30 01:50:00,
2013-01-29 20:51:00,54.1,52.4,29.56,South,178,1.0,-999.0,94,0.00,,,0.67,Wunderground v.1.15,2013-01-30 01:51:00,
2013-01-29 20:52:00,54.1,52.4,29.56,South,186,2.0,-999.0,94,0.00,,,0.67,Wunderground v.1.15,2013-01-30 01:52:00,
2013-01-29 20:55:00,54.1,52.4,29.56,South,186,6.0,-999.0,94,0.00,,,0.67,Wunderground v.1.15,2013-01-30 01:55:00,
2013-01-29 20:56:00,54.2,52.5,29.56,South,171,7.0,-999.0,94,0.00,,,0.67,Wunderground v.1.15,2013-01-30 01:56:00,
2013-01-29 20:58:00,54.2,52.5,29.56,South,189,3.0,-999.0,94,0.00,,,0.67,Wunderground v.1.15,2013-01-30 01:58:00,
2013-01-29 21:00:00,54.2,52.5,29.55,South,176,3.0,-999.0,94,0.00,,,0.67,Wunderground v.1.15,2013-01-30 02:00:00,
2013-01-29 21:01:00,54.2,52.5,29.55,South,171,0.0,-999.0,94,0.00,,,0.67,Wunderground v.1.15,2013-01-30 02:01:00,
2013-01-29 21:02:00,54.2,52.5,29.55,SSW,202,3.0,-999.0,94,0.00,,,0.67,Wunderground v.1.15,2013-01-30 02:02:00,
2013-01-29 21:03:00,54.2,52.5,29.55,South,182,2.0,-999.0,94,0.00,,,0.67,Wunderground v.1.15,2013-01-30 02:03:00,
2013-01-29 21:06:00,54.2,52.5,29.55,SSE,164,5.0,-999.0,94,0.00,,,0.67,Wunderground v.1.15,2013-01-30 02:06:00,
2013-01-29 21:07:00,54.2,52.5,29.55,SSE,168,2.0,-999.0,94,0.00,,,0.67,Wunderground v.1.15,2013-01-30 02:07:00,
2013-01-29 21:08:00,54.4,52.7,29.55,South,182,2.0,-999.0,94,0.00,,,0.67,Wunderground v.1.15,2013-01-30 02:08:00,
2013-01-29 21:10:00,54.4,52.7,29.55,South,182,2.0,-999.0,94,0.00,,,0.67,Wunderground v.1.15,2013-01-30 02:10:00,
2013-01-29 21:11:00,54.2,52.5,29.55,SSE,154,1.0,-999.0,94,0.00,,,0.67,Wunderground v.1.15,2013-01-30 02:11:00,
2013-01-29 21:12:00,54.2,52.5,29.55,South,178,2.0,-999.0,94,0.00,,,0.67,Wunderground v.1.15,2013-01-30 02:12:00,
2013-01-29 21:13:00,54.2,52.5,29.55,South,189,4.0,-999.0,94,0.00,,,0.67,Wunderground v.1.15,2013-01-30 02:13:00,
2013-01-29 21:15:00,54.2,52.5,29.53,SSW,195,1.0,-999.0,94,0.00,,,0.67,Wunderground v.1.15,2013-01-30 02:15:00,
2013-01-29 21:16:00,54.2,52.5,29.53,South,176,7.0,-999.0,94,0.00,,,0.67,Wunderground v.1.15,2013-01-30 02:16:00,
2013-01-29 21:17:00,54.2,52.5,29.53,South,191,0.0,-999.0,94,0.00,,,0.67,Wunderground v.1.15,2013-01-30 02:17:00,
2013-01-29 21:19:00,54.2,52.5,29.53,South,182,6.0,-999.0,94,0.00,,,0.67,Wunderground v.1.15,2013-01-30 02:19:00,
2013-01-29 21:21:00,54.2,52.5,29.53,SSW,196,8.0,-999.0,94,0.00,,,0.67,Wunderground v.1.15,2013-01-30 02:21:00,
2013-01-29 21:22:00,54.4,52.7,29.53,SSW,193,6.0,-999.0,94,0.00,,,0.67,Wunderground v.1.15,2013-01-30 02:22:00,
2013-01-29 21:24:00,54.4,52.7,29.53,SSW,210,7.0,-999.0,94,0.00,,,0.67,Wunderground v.1.15,2013-01-30 02:24:00,
2013-01-29 21:26:00,54.4,52.7,29.53,SW,226,5.0,-999.0,94,0.00,,,0.67,Wunderground v.1.15,2013-01-30 02:26:00,
2013-01-29 21:28:00,54.4,52.7,29.53,SSE,157,0.0,-999.0,94,0.00,,,0.67,Wunderground v.1.15,2013-01-30 02:28:00,
2013-01-29 21:29:00,54.4,52.7,29.53,SSE,168,0.0,-999.0,94,0.00,,,0.67,Wunderground v.1.15,2013-01-30 02:29:00,
2013-01-29 21:32:00,54.4,52.4,29.53,South,189,4.0,-999.0,93,0.00,,,0.67,Wunderground v.1.15,2013-01-30 02:32:00,
2013-01-29 21:33:00,54.4,52.4,29.53,SSW,206,2.0,-999.0,93,0.00,,,0.67,Wunderground v.1.15,2013-01-30 02:33:00,
2013-01-29 21:34:00,54.4,52.4,29.53,SSW,205,3.0,-999.0,93,0.00,,,0.67,Wunderground v.1.15,2013-01-30 02:34:00,
2013-01-29 21:37:00,54.4,52.4,29.53,SSE,168,5.0,-999.0,93,0.00,,,0.67,Wunderground v.1.15,2013-01-30 02:37:00,
2013-01-29 21:38:00,54.4,52.4,29.53,SSW,200,0.0,-999.0,93,0.00,,,0.67,Wunderground v.1.15,2013-01-30 02:38:00,
2013-01-29 21:39:00,54.4,52.4,29.53,SSW,203,2.0,-999.0,93,0.00,,,0.67,Wunderground v.1.15,2013-01-30 02:39:00,
2013-01-29 21:42:00,54.2,52.2,29.53,South,171,0.0,-999.0,93,0.00,,,0.67,Wunderground v.1.15,2013-01-30 02:42:00,
2013-01-29 21:43:00,54.2,52.2,29.53,South,184,1.0,-999.0,93,0.00,,,0.67,Wunderground v.1.15,2013-01-30 02:43:00,
2013-01-29 21:44:00,54.2,52.2,29.53,South,176,0.0,-999.0,93,0.00,,,0.67,Wunderground v.1.15,2013-01-30 02:44:00,
2013-01-29 21:47:00,54.1,51.8,29.52,South,189,1.0,-999.0,92,0.00,,,0.67,Wunderground v.1.15,2013-01-30 02:47:00,
2013-01-29 21:48:00,54.1,51.8,29.52,South,184,1.0,-999.0,92,0.00,,,0.67,Wunderground v.1.15,2013-01-30 02:48:00,
2013-01-29 21:49:00,53.9,51.6,29.52,South,186,7.0,-999.0,92,0.00,,,0.67,Wunderground v.1.15,2013-01-30 02:49:00,
2013-01-29 21:50:00,53.9,51.6,29.52,South,181,1.0,-999.0,92,0.00,,,0.67,Wunderground v.1.15,2013-01-30 02:50:00,
2013-01-29 21:53:00,53.8,51.5,29.52,SSW,203,10.0,-999.0,92,0.00,,,0.67,Wunderground v.1.15,2013-01-30 02:53:00,
2013-01-29 21:54:00,53.8,51.5,29.52,SSW,198,5.0,-999.0,92,0.00,,,0.67,Wunderground v.1.15,2013-01-30 02:54:00,
2013-01-29 21:55:00,53.8,51.5,29.52,South,176,3.0,-999.0,92,0.00,,,0.67,Wunderground v.1.15,2013-01-30 02:55:00,
2013-01-29 21:58:00,53.6,51.3,29.52,South,189,2.0,-999.0,92,0.00,,,0.67,Wunderground v.1.15,2013-01-30 02:58:00,
2013-01-29 21:59:00,53.6,51.3,29.52,South,182,0.0,-999.0,92,0.00,,,0.67,Wunderground v.1.15,2013-01-30 02:59:00,
2013-01-29 22:00:00,53.6,51.3,29.52,SSW,199,6.0,-999.0,92,0.00,,,0.67,Wunderground v.1.15,2013-01-30 03:00:00,
2013-01-29 22:04:00,53.6,51.3,29.50,SSE,151,1.0,-999.0,92,0.00,,,0.67,Wunderground v.1.15,2013-01-30 03:04:00,
2013-01-29 22:05:00,53.6,51.3,29.50,SSE,151,0.0,-999.0,92,0.00,,,0.67,Wunderground v.1.15,2013-01-30 03:05:00,
2013-01-29 22:06:00,53.6,51.3,29.50,SSE,150,2.0,-999.0,92,0.00,,,0.67,Wunderground v.1.15,2013-01-30 03:06:00,
2013-01-29 22:10:00,53.6,51.3,29.50,SSW,195,3.0,-999.0,92,0.00,,,0.67,Wunderground v.1.15,2013-01-30 03:10:00,
2013-01-29 22:11:00,53.6,51.3,29.50,South,188,6.0,-999.0,92,0.00,,,0.67,Wunderground v.1.15,2013-01-30 03:11:00,
2013-01-29 22:15:00,53.8,51.5,29.50,SSW,193,0.0,-999.0,92,0.00,,,0.67,Wunderground v.1.15,2013-01-30 03:15:00,
2013-01-29 22:16:00,53.8,51.5,29.50,South,176,0.0,-999.0,92,0.00,,,0.67,Wunderground v.1.15,2013-01-30 03:16:00,
2013-01-29 22:17:00,53.6,51.3,29.50,SSE,168,4.0,-999.0,92,0.00,,,0.67,Wunderground v.1.15,2013-01-30 03:17:00,
2013-01-29 22:20:00,53.8,51.5,29.50,SSW,199,3.0,-999.0,92,0.00,,,0.67,Wunderground v.1.15,2013-01-30 03:20:00,
2013-01-29 22:21:00,53.8,51.5,29.50,South,182,1.0,-999.0,92,0.00,,,0.67,Wunderground v.1.15,2013-01-30 03:21:00,
2013-01-29 22:23:00,53.8,51.5,29.50,SSW,206,6.0,-999.0,92,0.00,,,0.67,Wunderground v.1.15,2013-01-30 03:23:00,
2013-01-29 22:25:00,53.8,51.5,29.50,SSW,192,0.0,-999.0,92,0.00,,,0.67,Wunderground v.1.15,2013-01-30 03:25:00,
2013-01-29 22:26:00,53.6,51.3,29.50,SSW,192,3.0,-999.0,92,0.00,,,0.67,Wunderground v.1.15,2013-01-30 03:26:00,
2013-01-29 22:28:00,53.8,51.5,29.50,South,186,6.0,-999.0,92,0.00,,,0.67,Wunderground v.1.15,2013-01-30 03:28:00,
2013-01-29 22:30:00,53.8,51.5,29.48,South,182,5.0,-999.0,92,0.00,,,0.67,Wunderground v.1.15,2013-01-30 03:30:00,
2013-01-29 22:31:00,53.8,51.5,29.48,SSW,193,1.0,-999.0,92,0.00,,,0.67,Wunderground v.1.15,2013-01-30 03:31:00,
2013-01-29 22:33:00,53.8,51.5,29.48,SSW,192,1.0,-999.0,92,0.00,,,0.67,Wunderground v.1.15,2013-01-30 03:33:00,
2013-01-29 22:35:00,53.9,51.6,29.48,SSW,205,3.0,-999.0,92,0.00,,,0.67,Wunderground v.1.15,2013-01-30 03:35:00,
2013-01-29 22:36:00,53.9,51.6,29.48,South,176,0.0,-999.0,92,0.00,,,0.67,Wunderground v.1.15,2013-01-30 03:36:00,
2013-01-29 22:38:00,53.9,51.6,29.48,South,176,2.0,-999.0,92,0.00,,,0.67,Wunderground v.1.15,2013-01-30 03:38:00,
2013-01-29 22:41:00,53.9,51.6,29.48,SSW,199,2.0,-999.0,92,0.00,,,0.67,Wunderground v.1.15,2013-01-30 03:41:00,
2013-01-29 22:42:00,53.8,51.5,29.48,South,189,0.0,-999.0,92,0.00,,,0.67,Wunderground v.1.15,2013-01-30 03:42:00,
2013-01-29 22:44:00,53.8,51.5,29.48,SSE,168,3.0,-999.0,92,0.00,,,0.67,Wunderground v.1.15,2013-01-30 03:44:00,
2013-01-29 22:46:00,53.9,51.6,29.47,South,179,7.0,-999.0,92,0.00,,,0.67,Wunderground v.1.15,2013-01-30 03:46:00,
2013-01-29 22:47:00,53.9,51.6,29.47,SSW,192,3.0,-999.0,92,0.00,,,0.67,Wunderground v.1.15,2013-01-30 03:47:00,
2013-01-29 22:49:00,53.9,51.6,29.47,South,172,3.0,-999.0,92,0.00,,,0.67,Wunderground v.1.15,2013-01-30 03:49:00,
2013-01-29 22:51:00,54.1,51.8,29.47,South,189,3.0,-999.0,92,0.00,,,0.67,Wunderground v.1.15,2013-01-30 03:51:00,
2013-01-29 22:52:00,54.1,51.8,29.47,South,189,3.0,-999.0,92,0.00,,,0.67,Wunderground v.1.15,2013-01-30 03:52:00,
2013-01-29 22:54:00,54.1,51.8,29.47,South,185,0.0,-999.0,92,0.00,,,0.67,Wunderground v.1.15,2013-01-30 03:54:00,
2013-01-29 22:57:00,54.1,51.5,29.47,South,176,3.0,-999.0,91,0.00,,,0.67,Wunderground v.1.15,2013-01-30 03:57:00,
2013-01-29 22:58:00,54.1,51.5,29.47,South,184,3.0,-999.0,91,0.00,,,0.67,Wunderground v.1.15,2013-01-30 03:58:00,
2013-01-29 22:59:00,54.1,51.5,29.47,South,171,5.0,-999.0,91,0.00,,,0.67,Wunderground v.1.15,2013-01-30 03:59:00,
2013-01-29 23:02:00,54.2,51.6,29.45,SSW,193,2.0,-999.0,91,0.00,,,0.67,Wunderground v.1.15,2013-01-30 04:02:00,
2013-01-29 23:04:00,54.2,51.6,29.45,South,175,5.0,-999.0,91,0.00,,,0.67,Wunderground v.1.15,2013-01-30 04:04:00,
2013-01-29 23:07:00,54.5,51.9,29.45,South,181,17.0,-999.0,91,0.00,,,0.67,Wunderground v.1.15,2013-01-30 04:07:00,
2013-01-29 23:09:00,54.7,52.1,29.45,SSE,158,0.0,-999.0,91,0.00,,,0.67,Wunderground v.1.15,2013-01-30 04:09:00,
2013-01-29 23:10:00,54.7,52.1,29.45,SSE,150,2.0,-999.0,91,0.00,,,0.67,Wunderground v.1.15,2013-01-30 04:10:00,
2013-01-29 23:12:00,54.7,52.1,29.45,South,182,6.0,-999.0,91,0.00,,,0.67,Wunderground v.1.15,2013-01-30 04:12:00,
2013-01-29 23:14:00,54.7,52.1,29.45,SSE,162,5.0,-999.0,91,0.00,,,0.67,Wunderground v.1.15,2013-01-30 04:14:00,
2013-01-29 23:15:00,54.8,52.2,29.45,South,188,6.0,-999.0,91,0.00,,,0.67,Wunderground v.1.15,2013-01-30 04:15:00,
2013-01-29 23:17:00,54.8,52.2,29.45,SSW,193,6.0,-999.0,91,0.00,,,0.67,Wunderground v.1.15,2013-01-30 04:17:00,
2013-01-29 23:20:00,55.0,52.1,29.45,South,178,5.0,-999.0,90,0.00,,,0.67,Wunderground v.1.15,2013-01-30 04:20:00,
2013-01-29 23:23:00,55.0,52.1,29.45,South,186,6.0,-999.0,90,0.00,,,0.67,Wunderground v.1.15,2013-01-30 04:23:00,
2013-01-29 23:25:00,55.0,52.1,29.45,SSE,164,5.0,-999.0,90,0.00,,,0.67,Wunderground v.1.15,2013-01-30 04:25:00,
2013-01-29 23:27:00,55.1,52.2,29.45,South,174,6.0,-999.0,90,0.00,,,0.67,Wunderground v.1.15,2013-01-30 04:27:00,
2013-01-29 23:28:00,55.1,52.2,29.45,SSW,195,11.0,-999.0,90,0.00,,,0.67,Wunderground v.1.15,2013-01-30 04:28:00,
2013-01-29 23:30:00,55.3,52.1,29.45,SSE,168,2.0,-999.0,89,0.00,,,0.67,Wunderground v.1.15,2013-01-30 04:30:00,
2013-01-29 23:32:00,55.3,52.1,29.43,South,176,3.0,-999.0,89,0.00,,,0.67,Wunderground v.1.15,2013-01-30 04:32:00,
2013-01-29 23:33:00,55.3,52.1,29.43,South,176,12.0,-999.0,89,0.00,,,0.67,Wunderground v.1.15,2013-01-30 04:33:00,
2013-01-29 23:35:00,55.4,52.2,29.43,South,189,0.0,-999.0,89,0.00,,,0.67,Wunderground v.1.15,2013-01-30 04:35:00,
2013-01-29 23:36:00,55.4,52.2,29.43,South,178,2.0,-999.0,89,0.00,,,0.67,Wunderground v.1.15,2013-01-30 04:36:00,
2013-01-29 23:38:00,55.3,52.1,29.43,South,185,6.0,-999.0,89,0.00,,,0.67,Wunderground v.1.15,2013-01-30 04:38:00,
2013-01-29 23:39:00,55.3,52.1,29.43,SSW,210,8.0,-999.0,89,0.00,,,0.67,Wunderground v.1.15,2013-01-30 04:39:00,
2013-01-29 23:40:00,55.3,52.1,29.43,SSE,167,6.0,-999.0,89,0.00,,,0.67,Wunderground v.1.15,2013-01-30 04:40:00,
2013-01-29 23:41:00,55.3,52.1,29.43,South,184,6.0,-999.0,89,0.00,,,0.67,Wunderground v.1.15,2013-01-30 04:41:00,
2013-01-29 23:43:00,55.3,52.1,29.43,South,181,3.0,-999.0,89,0.00,,,0.67,Wunderground v.1.15,2013-01-30 04:43:00,
2013-01-29 23:44:00,55.3,52.1,29.43,South,189,4.0,-999.0,89,0.00,,,0.67,Wunderground v.1.15,2013-01-30 04:44:00,
2013-01-29 23:45:00,55.3,52.1,29.42,South,174,0.0,-999.0,89,0.00,,,0.67,Wunderground v.1.15,2013-01-30 04:45:00,
2013-01-29 23:47:00,55.3,52.1,29.42,SSE,164,4.0,-999.0,89,0.00,,,0.67,Wunderground v.1.15,2013-01-30 04:47:00,
2013-01-29 23:49:00,55.4,52.2,29.42,South,188,2.0,-999.0,89,0.00,,,0.67,Wunderground v.1.15,2013-01-30 04:49:00,
2013-01-29 23:51:00,55.3,52.1,29.42,South,181,3.0,-999.0,89,0.00,,,0.67,Wunderground v.1.15,2013-01-30 04:51:00,
2013-01-29 23:52:00,55.3,52.1,29.42,South,178,8.0,-999.0,89,0.00,,,0.67,Wunderground v.1.15,2013-01-30 04:52:00,
2013-01-29 23:54:00,55.3,52.1,29.42,South,182,1.0,-999.0,89,0.00,,,0.67,Wunderground v.1.15,2013-01-30 04:54:00,
2013-01-29 23:56:00,55.4,52.2,29.42,South,185,1.0,-999.0,89,0.00,,,0.67,Wunderground v.1.15,2013-01-30 04:56:00,
2013-01-29 23:58:00,55.6,52.1,29.42,South,181,2.0,-999.0,88,0.00,,,0.67,Wunderground v.1.15,2013-01-30 04:58:00,
2013-01-29 23:59:00,55.6,52.1,29.42,South,181,10.0,-999.0,88,0.00,,,0.67,Wunderground v.1.15,2013-01-30 04:59:00,